<?xml version="1.0" encoding="UTF-8" standalone="no" ?>
<gpx xmlns="http://www.topografix.com/GPX/1/1" xmlns:xsi="http://www.w3.org/2001/XMLSchema-instance" xsi:schemaLocation="http://www.topografix.com/GPX/1/1 http://www.topografix.com/GPX/1/1/gpx.xsd" version="1.1" creator="VisuGPX - https://www.visugpx.com">
  <metadata>
    <name>Labatie St Jeure par Ploye + resto</name>
  </metadata>
  <trk>
    <name><![CDATA[2021-03-04 08:49:25]]></name>
    <extensions>
      <line xmlns="http://www.topografix.com/GPX/gpx_style/0/2">
        <color>0000FF</color>
        <opacity>0.59</opacity>
        <width>6</width>
      </line>
    </extensions>
    <trkseg>
      <trkpt lat="45.02769" lon="4.49502">
        <ele>493.58</ele>
        <time>2021-03-04T07:49:26.999Z</time>
      </trkpt>
      <trkpt lat="45.02781" lon="4.4954">
        <ele>494.75</ele>
        <time>2021-03-04T07:49:56.453Z</time>
      </trkpt>
      <trkpt lat="45.02789" lon="4.4957">
        <ele>495.28</ele>
        <time>2021-03-04T07:50:15.409Z</time>
      </trkpt>
      <trkpt lat="45.028" lon="4.4959">
        <ele>497.24</ele>
        <time>2021-03-04T07:50:34.114Z</time>
      </trkpt>
      <trkpt lat="45.02801" lon="4.49633">
        <ele>502.39</ele>
        <time>2021-03-04T07:51:02.999Z</time>
      </trkpt>
      <trkpt lat="45.02791" lon="4.49664">
        <ele>507.43</ele>
        <time>2021-03-04T07:51:23.293Z</time>
      </trkpt>
      <trkpt lat="45.02786" lon="4.49708">
        <ele>513.02</ele>
        <time>2021-03-04T07:51:52.999Z</time>
      </trkpt>
      <trkpt lat="45.02776" lon="4.49734">
        <ele>515.91</ele>
        <time>2021-03-04T07:52:11.999Z</time>
      </trkpt>
      <trkpt lat="45.02766" lon="4.49759">
        <ele>517.7</ele>
        <time>2021-03-04T07:52:30.907Z</time>
      </trkpt>
      <trkpt lat="45.02742" lon="4.49794">
        <ele>521.06</ele>
        <time>2021-03-04T07:53:00.017Z</time>
      </trkpt>
      <trkpt lat="45.02737" lon="4.49808">
        <ele>521.98</ele>
        <time>2021-03-04T07:53:20.999Z</time>
      </trkpt>
      <trkpt lat="45.02739" lon="4.49842">
        <ele>523.05</ele>
        <time>2021-03-04T07:53:39.996Z</time>
      </trkpt>
      <trkpt lat="45.02749" lon="4.49884">
        <ele>526.2</ele>
        <time>2021-03-04T07:54:10.269Z</time>
      </trkpt>
      <trkpt lat="45.02756" lon="4.49913">
        <ele>528.82</ele>
        <time>2021-03-04T07:54:30.999Z</time>
      </trkpt>
      <trkpt lat="45.02765" lon="4.49961">
        <ele>532.67</ele>
        <time>2021-03-04T07:54:58.999Z</time>
      </trkpt>
      <trkpt lat="45.02774" lon="4.49985">
        <ele>535.4</ele>
        <time>2021-03-04T07:55:17.999Z</time>
      </trkpt>
      <trkpt lat="45.02784" lon="4.50018">
        <ele>538.67</ele>
        <time>2021-03-04T07:55:36.832Z</time>
      </trkpt>
      <trkpt lat="45.02796" lon="4.50056">
        <ele>542.98</ele>
        <time>2021-03-04T07:56:06.999Z</time>
      </trkpt>
      <trkpt lat="45.02805" lon="4.50084">
        <ele>547.01</ele>
        <time>2021-03-04T07:56:27.999Z</time>
      </trkpt>
      <trkpt lat="45.02807" lon="4.50125">
        <ele>551.59</ele>
        <time>2021-03-04T07:56:56.253Z</time>
      </trkpt>
      <trkpt lat="45.02807" lon="4.50153">
        <ele>554.5</ele>
        <time>2021-03-04T07:57:16.999Z</time>
      </trkpt>
      <trkpt lat="45.02815" lon="4.5017">
        <ele>556.89</ele>
        <time>2021-03-04T07:57:35.999Z</time>
      </trkpt>
      <trkpt lat="45.02823" lon="4.50131">
        <ele>560.92</ele>
        <time>2021-03-04T07:58:05.999Z</time>
      </trkpt>
      <trkpt lat="45.02826" lon="4.50155">
        <ele>564.68</ele>
        <time>2021-03-04T07:58:24.436Z</time>
      </trkpt>
      <trkpt lat="45.02831" lon="4.50182">
        <ele>567.76</ele>
        <time>2021-03-04T07:58:44.999Z</time>
      </trkpt>
      <trkpt lat="45.02853" lon="4.50219">
        <ele>572.37</ele>
        <time>2021-03-04T07:59:15.289Z</time>
      </trkpt>
      <trkpt lat="45.02858" lon="4.5021">
        <ele>575.67</ele>
        <time>2021-03-04T07:59:37.000Z</time>
      </trkpt>
      <trkpt lat="45.02859" lon="4.50159">
        <ele>579.22</ele>
        <time>2021-03-04T08:00:05.552Z</time>
      </trkpt>
      <trkpt lat="45.0286" lon="4.50128">
        <ele>579.91</ele>
        <time>2021-03-04T08:00:25.000Z</time>
      </trkpt>
      <trkpt lat="45.02864" lon="4.50097">
        <ele>580.25</ele>
        <time>2021-03-04T08:00:45.000Z</time>
      </trkpt>
      <trkpt lat="45.02874" lon="4.5007">
        <ele>584.5</ele>
        <time>2021-03-04T08:01:16.000Z</time>
      </trkpt>
      <trkpt lat="45.02883" lon="4.50102">
        <ele>587.75</ele>
        <time>2021-03-04T08:01:35.000Z</time>
      </trkpt>
      <trkpt lat="45.02897" lon="4.50145">
        <ele>593.65</ele>
        <time>2021-03-04T08:02:06.000Z</time>
      </trkpt>
      <trkpt lat="45.02903" lon="4.50174">
        <ele>596.2</ele>
        <time>2021-03-04T08:02:25.195Z</time>
      </trkpt>
      <trkpt lat="45.02908" lon="4.50183">
        <ele>597.56</ele>
        <time>2021-03-04T08:02:46.000Z</time>
      </trkpt>
      <trkpt lat="45.02908" lon="4.50184">
        <ele>598.13</ele>
        <time>2021-03-04T08:04:00.000Z</time>
      </trkpt>
      <trkpt lat="45.0291" lon="4.50189">
        <ele>598.2</ele>
        <time>2021-03-04T08:04:29.000Z</time>
      </trkpt>
      <trkpt lat="45.02914" lon="4.50166">
        <ele>601.82</ele>
        <time>2021-03-04T08:04:59.000Z</time>
      </trkpt>
      <trkpt lat="45.02917" lon="4.50131">
        <ele>604.06</ele>
        <time>2021-03-04T08:05:17.496Z</time>
      </trkpt>
      <trkpt lat="45.02929" lon="4.50103">
        <ele>606.53</ele>
        <time>2021-03-04T08:05:36.274Z</time>
      </trkpt>
      <trkpt lat="45.02933" lon="4.50061">
        <ele>609.77</ele>
        <time>2021-03-04T08:06:04.628Z</time>
      </trkpt>
      <trkpt lat="45.02941" lon="4.50031">
        <ele>611.97</ele>
        <time>2021-03-04T08:06:23.190Z</time>
      </trkpt>
      <trkpt lat="45.02952" lon="4.50002">
        <ele>615</ele>
        <time>2021-03-04T08:06:42.122Z</time>
      </trkpt>
      <trkpt lat="45.02976" lon="4.49965">
        <ele>619.03</ele>
        <time>2021-03-04T08:07:11.613Z</time>
      </trkpt>
      <trkpt lat="45.02987" lon="4.49944">
        <ele>620.94</ele>
        <time>2021-03-04T08:07:32.000Z</time>
      </trkpt>
      <trkpt lat="45.03007" lon="4.49915">
        <ele>625.54</ele>
        <time>2021-03-04T08:08:01.189Z</time>
      </trkpt>
      <trkpt lat="45.03026" lon="4.49916">
        <ele>627.49</ele>
        <time>2021-03-04T08:08:20.000Z</time>
      </trkpt>
      <trkpt lat="45.03017" lon="4.49941">
        <ele>631.55</ele>
        <time>2021-03-04T08:08:39.676Z</time>
      </trkpt>
      <trkpt lat="45.03011" lon="4.49978">
        <ele>635.58</ele>
        <time>2021-03-04T08:09:09.000Z</time>
      </trkpt>
      <trkpt lat="45.03007" lon="4.50012">
        <ele>637.67</ele>
        <time>2021-03-04T08:09:27.272Z</time>
      </trkpt>
      <trkpt lat="45.03003" lon="4.50054">
        <ele>641.9</ele>
        <time>2021-03-04T08:09:56.000Z</time>
      </trkpt>
      <trkpt lat="45.03004" lon="4.50084">
        <ele>645.41</ele>
        <time>2021-03-04T08:10:16.000Z</time>
      </trkpt>
      <trkpt lat="45.03008" lon="4.50114">
        <ele>649.21</ele>
        <time>2021-03-04T08:10:36.146Z</time>
      </trkpt>
      <trkpt lat="45.03027" lon="4.50157">
        <ele>653.61</ele>
        <time>2021-03-04T08:11:05.999Z</time>
      </trkpt>
      <trkpt lat="45.03042" lon="4.50178">
        <ele>656.52</ele>
        <time>2021-03-04T08:11:25.145Z</time>
      </trkpt>
      <trkpt lat="45.03056" lon="4.50184">
        <ele>659.31</ele>
        <time>2021-03-04T08:11:45.614Z</time>
      </trkpt>
      <trkpt lat="45.03069" lon="4.50192">
        <ele>664.9</ele>
        <time>2021-03-04T08:12:14.999Z</time>
      </trkpt>
      <trkpt lat="45.03083" lon="4.50212">
        <ele>668.34</ele>
        <time>2021-03-04T08:12:34.999Z</time>
      </trkpt>
      <trkpt lat="45.03114" lon="4.50266">
        <ele>672.87</ele>
        <time>2021-03-04T08:13:05.999Z</time>
      </trkpt>
      <trkpt lat="45.03119" lon="4.50287">
        <ele>675.63</ele>
        <time>2021-03-04T08:13:25.999Z</time>
      </trkpt>
      <trkpt lat="45.03127" lon="4.50324">
        <ele>679.71</ele>
        <time>2021-03-04T08:13:45.999Z</time>
      </trkpt>
      <trkpt lat="45.03129" lon="4.50361">
        <ele>686.32</ele>
        <time>2021-03-04T08:14:15.589Z</time>
      </trkpt>
      <trkpt lat="45.03133" lon="4.50374">
        <ele>690.23</ele>
        <time>2021-03-04T08:14:34.999Z</time>
      </trkpt>
      <trkpt lat="45.03151" lon="4.50337">
        <ele>695.85</ele>
        <time>2021-03-04T08:15:04.489Z</time>
      </trkpt>
      <trkpt lat="45.03167" lon="4.50307">
        <ele>698.54</ele>
        <time>2021-03-04T08:15:24.370Z</time>
      </trkpt>
      <trkpt lat="45.03181" lon="4.50292">
        <ele>701.93</ele>
        <time>2021-03-04T08:15:43.999Z</time>
      </trkpt>
      <trkpt lat="45.03179" lon="4.50242">
        <ele>703.82</ele>
        <time>2021-03-04T08:16:12.253Z</time>
      </trkpt>
      <trkpt lat="45.0318" lon="4.50217">
        <ele>704.4</ele>
        <time>2021-03-04T08:16:30.994Z</time>
      </trkpt>
      <trkpt lat="45.0319" lon="4.50188">
        <ele>708.19</ele>
        <time>2021-03-04T08:16:59.610Z</time>
      </trkpt>
      <trkpt lat="45.03199" lon="4.50218">
        <ele>712.03</ele>
        <time>2021-03-04T08:17:19.999Z</time>
      </trkpt>
      <trkpt lat="45.03208" lon="4.50237">
        <ele>716.12</ele>
        <time>2021-03-04T08:17:38.999Z</time>
      </trkpt>
      <trkpt lat="45.03223" lon="4.50271">
        <ele>721.29</ele>
        <time>2021-03-04T08:18:07.999Z</time>
      </trkpt>
      <trkpt lat="45.03241" lon="4.50287">
        <ele>723.23</ele>
        <time>2021-03-04T08:18:26.656Z</time>
      </trkpt>
      <trkpt lat="45.03249" lon="4.50308">
        <ele>724.47</ele>
        <time>2021-03-04T08:18:45.999Z</time>
      </trkpt>
      <trkpt lat="45.03249" lon="4.50348">
        <ele>730.56</ele>
        <time>2021-03-04T08:19:14.889Z</time>
      </trkpt>
      <trkpt lat="45.03246" lon="4.5037">
        <ele>734.1</ele>
        <time>2021-03-04T08:19:34.999Z</time>
      </trkpt>
      <trkpt lat="45.03252" lon="4.50413">
        <ele>740.83</ele>
        <time>2021-03-04T08:20:03.273Z</time>
      </trkpt>
      <trkpt lat="45.03258" lon="4.50432">
        <ele>745.14</ele>
        <time>2021-03-04T08:20:23.999Z</time>
      </trkpt>
      <trkpt lat="45.03259" lon="4.50458">
        <ele>749.94</ele>
        <time>2021-03-04T08:20:43.186Z</time>
      </trkpt>
      <trkpt lat="45.03264" lon="4.50494">
        <ele>756.64</ele>
        <time>2021-03-04T08:21:12.999Z</time>
      </trkpt>
      <trkpt lat="45.03265" lon="4.50497">
        <ele>757.15</ele>
        <time>2021-03-04T08:21:32.999Z</time>
      </trkpt>
      <trkpt lat="45.03262" lon="4.505">
        <ele>758.27</ele>
        <time>2021-03-04T08:22:21.000Z</time>
      </trkpt>
      <trkpt lat="45.03261" lon="4.50495">
        <ele>758.33</ele>
        <time>2021-03-04T08:22:49.000Z</time>
      </trkpt>
      <trkpt lat="45.03262" lon="4.505">
        <ele>758.74</ele>
        <time>2021-03-04T08:23:16.000Z</time>
      </trkpt>
      <trkpt lat="45.03265" lon="4.50508">
        <ele>760.39</ele>
        <time>2021-03-04T08:24:17.000Z</time>
      </trkpt>
      <trkpt lat="45.03267" lon="4.50542">
        <ele>764.32</ele>
        <time>2021-03-04T08:24:38.000Z</time>
      </trkpt>
      <trkpt lat="45.03272" lon="4.50568">
        <ele>768.37</ele>
        <time>2021-03-04T08:24:57.000Z</time>
      </trkpt>
      <trkpt lat="45.03278" lon="4.50594">
        <ele>775.89</ele>
        <time>2021-03-04T08:25:27.000Z</time>
      </trkpt>
      <trkpt lat="45.03279" lon="4.5062">
        <ele>781.37</ele>
        <time>2021-03-04T08:25:47.000Z</time>
      </trkpt>
      <trkpt lat="45.03286" lon="4.50649">
        <ele>788.72</ele>
        <time>2021-03-04T08:26:17.000Z</time>
      </trkpt>
      <trkpt lat="45.0329" lon="4.50675">
        <ele>793.42</ele>
        <time>2021-03-04T08:26:37.000Z</time>
      </trkpt>
      <trkpt lat="45.0329" lon="4.50701">
        <ele>797.13</ele>
        <time>2021-03-04T08:26:57.000Z</time>
      </trkpt>
      <trkpt lat="45.03291" lon="4.5074">
        <ele>802.28</ele>
        <time>2021-03-04T08:27:25.494Z</time>
      </trkpt>
      <trkpt lat="45.0329" lon="4.50768">
        <ele>804.52</ele>
        <time>2021-03-04T08:27:46.000Z</time>
      </trkpt>
      <trkpt lat="45.03289" lon="4.5082">
        <ele>806.63</ele>
        <time>2021-03-04T08:28:14.000Z</time>
      </trkpt>
      <trkpt lat="45.03289" lon="4.50851">
        <ele>810.73</ele>
        <time>2021-03-04T08:28:34.692Z</time>
        <extensions>
          <visugpx:TrkExtension xmlns:visugpx="https://www.visugpx.com/editgpx/">
            <visugpx:node>1</visugpx:node>
            </visugpx:TrkExtension>
        </extensions>
      </trkpt>
      <trkpt lat="45.0329" lon="4.50851">
        <ele>790.1</ele>
      </trkpt>
      <trkpt lat="45.0329" lon="4.50854">
        <ele>790.5</ele>
      </trkpt>
      <trkpt lat="45.033" lon="4.50863">
        <ele>792.4</ele>
      </trkpt>
      <trkpt lat="45.0332" lon="4.50887">
        <ele>796.8</ele>
      </trkpt>
      <trkpt lat="45.03346" lon="4.50915">
        <ele>797.4</ele>
      </trkpt>
      <trkpt lat="45.03363" lon="4.50933">
        <ele>795</ele>
      </trkpt>
      <trkpt lat="45.03376" lon="4.50948">
        <ele>793.2</ele>
      </trkpt>
      <trkpt lat="45.03389" lon="4.50964">
        <ele>792.4</ele>
      </trkpt>
      <trkpt lat="45.03397" lon="4.50977">
        <ele>792.3</ele>
      </trkpt>
      <trkpt lat="45.03408" lon="4.50987">
        <ele>791.1</ele>
      </trkpt>
      <trkpt lat="45.03418" lon="4.50997">
        <ele>790.1</ele>
      </trkpt>
      <trkpt lat="45.03424" lon="4.51002">
        <ele>789.6</ele>
      </trkpt>
      <trkpt lat="45.0343" lon="4.51004">
        <ele>788.5</ele>
      </trkpt>
      <trkpt lat="45.03438" lon="4.51001">
        <ele>785.7</ele>
      </trkpt>
      <trkpt lat="45.03445" lon="4.50998">
        <ele>783.2</ele>
        <extensions>
          <visugpx:TrkExtension xmlns:visugpx="https://www.visugpx.com/editgpx/">
            <visugpx:node>2</visugpx:node>
            </visugpx:TrkExtension>
        </extensions>
      </trkpt>
      <trkpt lat="45.0345" lon="4.50996">
        <ele>781.3</ele>
      </trkpt>
      <trkpt lat="45.03463" lon="4.50996">
        <ele>777.7</ele>
      </trkpt>
      <trkpt lat="45.03475" lon="4.50997">
        <ele>774.8</ele>
      </trkpt>
      <trkpt lat="45.0349" lon="4.50996">
        <ele>770.5</ele>
      </trkpt>
      <trkpt lat="45.03503" lon="4.50994">
        <ele>766.5</ele>
      </trkpt>
      <trkpt lat="45.03523" lon="4.5099">
        <ele>760.8</ele>
      </trkpt>
      <trkpt lat="45.03539" lon="4.50985">
        <ele>755.9</ele>
      </trkpt>
      <trkpt lat="45.0355" lon="4.50984">
        <ele>753.5</ele>
      </trkpt>
      <trkpt lat="45.03559" lon="4.50988">
        <ele>752.6</ele>
      </trkpt>
      <trkpt lat="45.03569" lon="4.50994">
        <ele>752.3</ele>
      </trkpt>
      <trkpt lat="45.03578" lon="4.51004">
        <ele>752.8</ele>
      </trkpt>
      <trkpt lat="45.03588" lon="4.51016">
        <ele>752.5</ele>
      </trkpt>
      <trkpt lat="45.03595" lon="4.5103">
        <ele>752.6</ele>
      </trkpt>
      <trkpt lat="45.036" lon="4.51043">
        <ele>753.9</ele>
      </trkpt>
      <trkpt lat="45.03603" lon="4.51055">
        <ele>755.2</ele>
      </trkpt>
      <trkpt lat="45.03609" lon="4.51062">
        <ele>755</ele>
      </trkpt>
      <trkpt lat="45.03613" lon="4.51064">
        <ele>754.1</ele>
      </trkpt>
      <trkpt lat="45.03624" lon="4.51065">
        <ele>751.3</ele>
      </trkpt>
      <trkpt lat="45.03637" lon="4.51065">
        <ele>747.7</ele>
      </trkpt>
      <trkpt lat="45.03648" lon="4.51064">
        <ele>744.6</ele>
      </trkpt>
      <trkpt lat="45.03657" lon="4.51067">
        <ele>742.5</ele>
      </trkpt>
      <trkpt lat="45.03668" lon="4.51074">
        <ele>741.6</ele>
      </trkpt>
      <trkpt lat="45.03679" lon="4.51078">
        <ele>742.3</ele>
      </trkpt>
      <trkpt lat="45.03689" lon="4.51079">
        <ele>742.2</ele>
      </trkpt>
      <trkpt lat="45.03701" lon="4.51081">
        <ele>742.2</ele>
      </trkpt>
      <trkpt lat="45.03707" lon="4.51081">
        <ele>742</ele>
      </trkpt>
      <trkpt lat="45.03709" lon="4.51079">
        <ele>741.6</ele>
      </trkpt>
      <trkpt lat="45.03709" lon="4.51075">
        <ele>740.7</ele>
      </trkpt>
      <trkpt lat="45.03707" lon="4.5107">
        <ele>739.7</ele>
      </trkpt>
      <trkpt lat="45.03703" lon="4.51061">
        <ele>737.7</ele>
      </trkpt>
      <trkpt lat="45.03696" lon="4.51049">
        <ele>735.2</ele>
      </trkpt>
      <trkpt lat="45.03688" lon="4.51044">
        <ele>734</ele>
      </trkpt>
      <trkpt lat="45.03685" lon="4.51041">
        <ele>733.4</ele>
      </trkpt>
      <trkpt lat="45.03685" lon="4.51036">
        <ele>732.1</ele>
      </trkpt>
      <trkpt lat="45.03689" lon="4.5103">
        <ele>730.8</ele>
      </trkpt>
      <trkpt lat="45.03694" lon="4.51028">
        <ele>730.4</ele>
      </trkpt>
      <trkpt lat="45.03704" lon="4.51027">
        <ele>730.3</ele>
      </trkpt>
      <trkpt lat="45.03709" lon="4.51025">
        <ele>730</ele>
      </trkpt>
      <trkpt lat="45.03713" lon="4.51018">
        <ele>728.4</ele>
      </trkpt>
      <trkpt lat="45.03717" lon="4.51004">
        <ele>725.7</ele>
      </trkpt>
      <trkpt lat="45.0372" lon="4.50992">
        <ele>723.5</ele>
      </trkpt>
      <trkpt lat="45.03723" lon="4.50981">
        <ele>721.7</ele>
      </trkpt>
      <trkpt lat="45.03723" lon="4.50977">
        <ele>720.9</ele>
      </trkpt>
      <trkpt lat="45.03721" lon="4.50973">
        <ele>720.1</ele>
      </trkpt>
      <trkpt lat="45.03725" lon="4.50971">
        <ele>719.9</ele>
      </trkpt>
      <trkpt lat="45.03728" lon="4.50965">
        <ele>719</ele>
      </trkpt>
      <trkpt lat="45.03731" lon="4.50958">
        <ele>718</ele>
      </trkpt>
      <trkpt lat="45.03733" lon="4.50953">
        <ele>717.2</ele>
      </trkpt>
      <trkpt lat="45.03735" lon="4.50947">
        <ele>716.2</ele>
      </trkpt>
      <trkpt lat="45.03736" lon="4.50941">
        <ele>715.2</ele>
      </trkpt>
      <trkpt lat="45.03736" lon="4.50935">
        <ele>714.1</ele>
      </trkpt>
      <trkpt lat="45.03735" lon="4.5093">
        <ele>713.2</ele>
      </trkpt>
      <trkpt lat="45.03734" lon="4.50926">
        <ele>712.4</ele>
      </trkpt>
      <trkpt lat="45.03731" lon="4.50922">
        <ele>711.5</ele>
      </trkpt>
      <trkpt lat="45.03728" lon="4.50917">
        <ele>710.5</ele>
      </trkpt>
      <trkpt lat="45.03726" lon="4.50912">
        <ele>709.4</ele>
      </trkpt>
      <trkpt lat="45.03724" lon="4.50906">
        <ele>708.4</ele>
      </trkpt>
      <trkpt lat="45.03725" lon="4.50901">
        <ele>707.5</ele>
      </trkpt>
      <trkpt lat="45.03726" lon="4.50896">
        <ele>706.6</ele>
      </trkpt>
      <trkpt lat="45.03726" lon="4.50889">
        <ele>705.4</ele>
      </trkpt>
      <trkpt lat="45.03726" lon="4.50883">
        <ele>704.4</ele>
      </trkpt>
      <trkpt lat="45.03727" lon="4.50877">
        <ele>703.4</ele>
      </trkpt>
      <trkpt lat="45.03731" lon="4.50843">
        <ele>697.9</ele>
      </trkpt>
      <trkpt lat="45.03736" lon="4.50836">
        <ele>697</ele>
      </trkpt>
      <trkpt lat="45.0374" lon="4.50824">
        <ele>695.2</ele>
      </trkpt>
      <trkpt lat="45.03744" lon="4.50808">
        <ele>692.5</ele>
      </trkpt>
      <trkpt lat="45.03746" lon="4.50789">
        <ele>689.2</ele>
      </trkpt>
      <trkpt lat="45.03748" lon="4.50767">
        <ele>685.7</ele>
      </trkpt>
      <trkpt lat="45.0375" lon="4.5076">
        <ele>684.8</ele>
      </trkpt>
      <trkpt lat="45.0375" lon="4.5074">
        <ele>680.6</ele>
      </trkpt>
      <trkpt lat="45.03751" lon="4.50712">
        <ele>673.5</ele>
      </trkpt>
      <trkpt lat="45.03758" lon="4.50679">
        <ele>666.2</ele>
      </trkpt>
      <trkpt lat="45.03767" lon="4.50654">
        <ele>660.5</ele>
      </trkpt>
      <trkpt lat="45.03775" lon="4.50638">
        <ele>656.6</ele>
      </trkpt>
      <trkpt lat="45.03786" lon="4.50628">
        <ele>655.3</ele>
      </trkpt>
      <trkpt lat="45.03801" lon="4.50621">
        <ele>655.8</ele>
      </trkpt>
      <trkpt lat="45.03817" lon="4.50614">
        <ele>656.7</ele>
      </trkpt>
      <trkpt lat="45.03834" lon="4.50608">
        <ele>657.7</ele>
      </trkpt>
      <trkpt lat="45.03854" lon="4.50608">
        <ele>655.1</ele>
      </trkpt>
      <trkpt lat="45.0387" lon="4.50609">
        <ele>653.5</ele>
      </trkpt>
      <trkpt lat="45.03886" lon="4.50614">
        <ele>652.9</ele>
      </trkpt>
      <trkpt lat="45.03899" lon="4.5062">
        <ele>652.9</ele>
      </trkpt>
      <trkpt lat="45.03905" lon="4.50621">
        <ele>652.3</ele>
      </trkpt>
      <trkpt lat="45.03911" lon="4.50616">
        <ele>650.2</ele>
      </trkpt>
      <trkpt lat="45.03924" lon="4.50601">
        <ele>643.5</ele>
      </trkpt>
      <trkpt lat="45.03932" lon="4.50591">
        <ele>638.8</ele>
      </trkpt>
      <trkpt lat="45.03935" lon="4.50588">
        <ele>637</ele>
      </trkpt>
      <trkpt lat="45.03943" lon="4.50581">
        <ele>633.3</ele>
      </trkpt>
      <trkpt lat="45.03954" lon="4.50578">
        <ele>629.7</ele>
      </trkpt>
      <trkpt lat="45.03964" lon="4.50576">
        <ele>627.2</ele>
      </trkpt>
      <trkpt lat="45.03972" lon="4.50578">
        <ele>625.7</ele>
      </trkpt>
      <trkpt lat="45.03979" lon="4.50581">
        <ele>625.1</ele>
      </trkpt>
      <trkpt lat="45.03983" lon="4.50585">
        <ele>625.1</ele>
      </trkpt>
      <trkpt lat="45.03987" lon="4.50589">
        <ele>625.4</ele>
      </trkpt>
      <trkpt lat="45.03992" lon="4.50597">
        <ele>626.3</ele>
      </trkpt>
      <trkpt lat="45.03997" lon="4.50603">
        <ele>626.8</ele>
      </trkpt>
      <trkpt lat="45.04002" lon="4.50606">
        <ele>626.2</ele>
      </trkpt>
      <trkpt lat="45.04009" lon="4.50609">
        <ele>624.5</ele>
      </trkpt>
      <trkpt lat="45.04016" lon="4.50614">
        <ele>623.5</ele>
      </trkpt>
      <trkpt lat="45.0402" lon="4.50619">
        <ele>623.7</ele>
      </trkpt>
      <trkpt lat="45.04024" lon="4.50627">
        <ele>624.5</ele>
      </trkpt>
      <trkpt lat="45.04025" lon="4.50635">
        <ele>626</ele>
      </trkpt>
      <trkpt lat="45.04026" lon="4.50645">
        <ele>628.2</ele>
      </trkpt>
      <trkpt lat="45.04027" lon="4.50654">
        <ele>630.3</ele>
      </trkpt>
      <trkpt lat="45.04027" lon="4.50662">
        <ele>632</ele>
      </trkpt>
      <trkpt lat="45.04028" lon="4.50664">
        <ele>632.1</ele>
      </trkpt>
      <trkpt lat="45.04031" lon="4.50663">
        <ele>631</ele>
      </trkpt>
      <trkpt lat="45.04033" lon="4.50657">
        <ele>629</ele>
      </trkpt>
      <trkpt lat="45.04035" lon="4.50643">
        <ele>624.8</ele>
      </trkpt>
      <trkpt lat="45.04036" lon="4.50631">
        <ele>621.6</ele>
      </trkpt>
      <trkpt lat="45.04036" lon="4.50619">
        <ele>618.5</ele>
      </trkpt>
      <trkpt lat="45.04034" lon="4.5061">
        <ele>617</ele>
      </trkpt>
      <trkpt lat="45.0403" lon="4.506">
        <ele>615.9</ele>
      </trkpt>
      <trkpt lat="45.04024" lon="4.50591">
        <ele>615.5</ele>
      </trkpt>
      <trkpt lat="45.04015" lon="4.5058">
        <ele>615.2</ele>
      </trkpt>
      <trkpt lat="45.0401" lon="4.5057">
        <ele>613.9</ele>
      </trkpt>
      <trkpt lat="45.04009" lon="4.50565">
        <ele>613</ele>
      </trkpt>
      <trkpt lat="45.0401" lon="4.50561">
        <ele>611.5</ele>
      </trkpt>
      <trkpt lat="45.04013" lon="4.5056">
        <ele>610.2</ele>
      </trkpt>
      <trkpt lat="45.04018" lon="4.5056">
        <ele>609</ele>
      </trkpt>
      <trkpt lat="45.04026" lon="4.50565">
        <ele>607.6</ele>
      </trkpt>
      <trkpt lat="45.04035" lon="4.50567">
        <ele>605.7</ele>
      </trkpt>
      <trkpt lat="45.04043" lon="4.50568">
        <ele>603.3</ele>
      </trkpt>
      <trkpt lat="45.04051" lon="4.5057">
        <ele>601.2</ele>
      </trkpt>
      <trkpt lat="45.04057" lon="4.50578">
        <ele>601.8</ele>
      </trkpt>
      <trkpt lat="45.0406" lon="4.50586">
        <ele>602.9</ele>
      </trkpt>
      <trkpt lat="45.04062" lon="4.50595">
        <ele>604.4</ele>
      </trkpt>
      <trkpt lat="45.04067" lon="4.50617">
        <ele>608.3</ele>
      </trkpt>
      <trkpt lat="45.04069" lon="4.50638">
        <ele>612.9</ele>
      </trkpt>
      <trkpt lat="45.04071" lon="4.50647">
        <ele>614.1</ele>
      </trkpt>
      <trkpt lat="45.04074" lon="4.50652">
        <ele>614.3</ele>
      </trkpt>
      <trkpt lat="45.04077" lon="4.50652">
        <ele>613.4</ele>
      </trkpt>
      <trkpt lat="45.04083" lon="4.50651">
        <ele>611.4</ele>
      </trkpt>
      <trkpt lat="45.04088" lon="4.50648">
        <ele>609.3</ele>
      </trkpt>
      <trkpt lat="45.04102" lon="4.50641">
        <ele>604.2</ele>
      </trkpt>
      <trkpt lat="45.04116" lon="4.50635">
        <ele>599.2</ele>
      </trkpt>
      <trkpt lat="45.04131" lon="4.50637">
        <ele>595.7</ele>
      </trkpt>
      <trkpt lat="45.04146" lon="4.50644">
        <ele>593.7</ele>
      </trkpt>
      <trkpt lat="45.04183" lon="4.50676">
        <ele>592.4</ele>
      </trkpt>
      <trkpt lat="45.04183" lon="4.50666">
        <ele>590.6</ele>
      </trkpt>
      <trkpt lat="45.04181" lon="4.5065">
        <ele>587.8</ele>
      </trkpt>
      <trkpt lat="45.04179" lon="4.50642">
        <ele>586.3</ele>
      </trkpt>
      <trkpt lat="45.04177" lon="4.50634">
        <ele>585.1</ele>
      </trkpt>
      <trkpt lat="45.04174" lon="4.5063">
        <ele>584.6</ele>
      </trkpt>
      <trkpt lat="45.04169" lon="4.50626">
        <ele>584.3</ele>
      </trkpt>
      <trkpt lat="45.04159" lon="4.50621">
        <ele>585.4</ele>
      </trkpt>
      <trkpt lat="45.04146" lon="4.50615">
        <ele>587.3</ele>
        <extensions>
          <visugpx:TrkExtension xmlns:visugpx="https://www.visugpx.com/editgpx/">
            <visugpx:node>3</visugpx:node>
            </visugpx:TrkExtension>
        </extensions>
      </trkpt>
      <trkpt lat="45.04143" lon="4.50613">
        <ele>587.8</ele>
      </trkpt>
      <trkpt lat="45.04134" lon="4.50609">
        <ele>589.1</ele>
      </trkpt>
      <trkpt lat="45.04138" lon="4.50601">
        <ele>586.3</ele>
      </trkpt>
      <trkpt lat="45.04141" lon="4.50599">
        <ele>585.2</ele>
      </trkpt>
      <trkpt lat="45.04151" lon="4.50598">
        <ele>582.7</ele>
      </trkpt>
      <trkpt lat="45.04163" lon="4.50595">
        <ele>579.4</ele>
      </trkpt>
      <trkpt lat="45.04184" lon="4.50585">
        <ele>574.7</ele>
      </trkpt>
      <trkpt lat="45.04187" lon="4.50585">
        <ele>574.4</ele>
      </trkpt>
      <trkpt lat="45.04191" lon="4.50586">
        <ele>574.3</ele>
      </trkpt>
      <trkpt lat="45.04193" lon="4.50588">
        <ele>574.4</ele>
      </trkpt>
      <trkpt lat="45.04195" lon="4.50592">
        <ele>574.8</ele>
      </trkpt>
      <trkpt lat="45.042" lon="4.50605">
        <ele>576.8</ele>
      </trkpt>
      <trkpt lat="45.04204" lon="4.50618">
        <ele>578.7</ele>
      </trkpt>
      <trkpt lat="45.04208" lon="4.50622">
        <ele>579</ele>
      </trkpt>
      <trkpt lat="45.04211" lon="4.5062">
        <ele>578.3</ele>
      </trkpt>
      <trkpt lat="45.0421" lon="4.50612">
        <ele>576.9</ele>
      </trkpt>
      <trkpt lat="45.04208" lon="4.50603">
        <ele>575.6</ele>
      </trkpt>
      <trkpt lat="45.04209" lon="4.50596">
        <ele>574.2</ele>
      </trkpt>
      <trkpt lat="45.0421" lon="4.50594">
        <ele>573.7</ele>
      </trkpt>
      <trkpt lat="45.04213" lon="4.50593">
        <ele>573.2</ele>
      </trkpt>
      <trkpt lat="45.0422" lon="4.50592">
        <ele>572.4</ele>
      </trkpt>
      <trkpt lat="45.04226" lon="4.5059">
        <ele>571.4</ele>
      </trkpt>
      <trkpt lat="45.04231" lon="4.50586">
        <ele>570.3</ele>
      </trkpt>
      <trkpt lat="45.04234" lon="4.50581">
        <ele>569.1</ele>
      </trkpt>
      <trkpt lat="45.04238" lon="4.50559">
        <ele>564.9</ele>
      </trkpt>
      <trkpt lat="45.0424" lon="4.5055">
        <ele>563</ele>
      </trkpt>
      <trkpt lat="45.04243" lon="4.50528">
        <ele>559</ele>
      </trkpt>
      <trkpt lat="45.04244" lon="4.50516">
        <ele>557</ele>
      </trkpt>
      <trkpt lat="45.04247" lon="4.50499">
        <ele>553.9</ele>
      </trkpt>
      <trkpt lat="45.04248" lon="4.5049">
        <ele>552.3</ele>
        <extensions>
          <visugpx:TrkExtension xmlns:visugpx="https://www.visugpx.com/editgpx/">
            <visugpx:node>4</visugpx:node>
            </visugpx:TrkExtension>
        </extensions>
      </trkpt>
      <trkpt lat="45.04249" lon="4.50472">
        <ele>549.3</ele>
      </trkpt>
      <trkpt lat="45.04248" lon="4.50468">
        <ele>548.7</ele>
      </trkpt>
      <trkpt lat="45.04243" lon="4.5047">
        <ele>549</ele>
      </trkpt>
      <trkpt lat="45.04241" lon="4.50469">
        <ele>549</ele>
      </trkpt>
      <trkpt lat="45.04237" lon="4.50466">
        <ele>548.5</ele>
      </trkpt>
      <trkpt lat="45.04236" lon="4.5046">
        <ele>547.4</ele>
      </trkpt>
      <trkpt lat="45.04236" lon="4.50448">
        <ele>545.4</ele>
      </trkpt>
      <trkpt lat="45.04236" lon="4.50433">
        <ele>542.8</ele>
      </trkpt>
      <trkpt lat="45.04235" lon="4.5042">
        <ele>540.5</ele>
      </trkpt>
      <trkpt lat="45.04233" lon="4.50412">
        <ele>539.3</ele>
      </trkpt>
      <trkpt lat="45.04229" lon="4.5041">
        <ele>538.9</ele>
      </trkpt>
      <trkpt lat="45.04227" lon="4.50397">
        <ele>536.9</ele>
      </trkpt>
      <trkpt lat="45.04227" lon="4.50389">
        <ele>535.6</ele>
      </trkpt>
      <trkpt lat="45.04228" lon="4.50379">
        <ele>534.1</ele>
      </trkpt>
      <trkpt lat="45.0423" lon="4.50371">
        <ele>532.9</ele>
      </trkpt>
      <trkpt lat="45.04237" lon="4.50361">
        <ele>531.6</ele>
      </trkpt>
      <trkpt lat="45.04244" lon="4.50353">
        <ele>530.6</ele>
      </trkpt>
      <trkpt lat="45.0426" lon="4.50343">
        <ele>530</ele>
      </trkpt>
      <trkpt lat="45.04277" lon="4.5033">
        <ele>529.2</ele>
      </trkpt>
      <trkpt lat="45.0429" lon="4.50318">
        <ele>528.5</ele>
      </trkpt>
      <trkpt lat="45.04302" lon="4.50306">
        <ele>527.8</ele>
      </trkpt>
      <trkpt lat="45.04311" lon="4.503">
        <ele>527.5</ele>
      </trkpt>
      <trkpt lat="45.04317" lon="4.50295">
        <ele>527.2</ele>
      </trkpt>
      <trkpt lat="45.04323" lon="4.50294">
        <ele>527.3</ele>
      </trkpt>
      <trkpt lat="45.04329" lon="4.50294">
        <ele>527.6</ele>
      </trkpt>
      <trkpt lat="45.04335" lon="4.50296">
        <ele>528.3</ele>
      </trkpt>
      <trkpt lat="45.0434" lon="4.50295">
        <ele>528.9</ele>
      </trkpt>
      <trkpt lat="45.04343" lon="4.50291">
        <ele>528.8</ele>
      </trkpt>
      <trkpt lat="45.04344" lon="4.50286">
        <ele>528.4</ele>
      </trkpt>
      <trkpt lat="45.04344" lon="4.50282">
        <ele>527.7</ele>
      </trkpt>
      <trkpt lat="45.0434" lon="4.50277">
        <ele>526.6</ele>
      </trkpt>
      <trkpt lat="45.04335" lon="4.5027">
        <ele>524.9</ele>
      </trkpt>
      <trkpt lat="45.0433" lon="4.50261">
        <ele>523.2</ele>
      </trkpt>
      <trkpt lat="45.04325" lon="4.50244">
        <ele>521.6</ele>
      </trkpt>
      <trkpt lat="45.04322" lon="4.50229">
        <ele>521.2</ele>
      </trkpt>
      <trkpt lat="45.04324" lon="4.50226">
        <ele>521.2</ele>
        <extensions>
          <visugpx:TrkExtension xmlns:visugpx="https://www.visugpx.com/editgpx/">
            <visugpx:node>5</visugpx:node>
            </visugpx:TrkExtension>
        </extensions>
      </trkpt>
      <trkpt lat="45.04322" lon="4.50229">
        <ele>521.2</ele>
      </trkpt>
      <trkpt lat="45.04319" lon="4.50223">
        <ele>521</ele>
      </trkpt>
      <trkpt lat="45.04298" lon="4.50197">
        <ele>520.5</ele>
      </trkpt>
      <trkpt lat="45.0428" lon="4.50185">
        <ele>520.5</ele>
      </trkpt>
      <trkpt lat="45.04262" lon="4.50172">
        <ele>520.8</ele>
      </trkpt>
      <trkpt lat="45.04236" lon="4.50155">
        <ele>522.1</ele>
      </trkpt>
      <trkpt lat="45.04218" lon="4.50141">
        <ele>523.1</ele>
      </trkpt>
      <trkpt lat="45.04203" lon="4.50127">
        <ele>523.8</ele>
      </trkpt>
      <trkpt lat="45.04193" lon="4.50114">
        <ele>524.5</ele>
      </trkpt>
      <trkpt lat="45.04184" lon="4.50099">
        <ele>525.1</ele>
      </trkpt>
      <trkpt lat="45.04177" lon="4.50077">
        <ele>526.7</ele>
      </trkpt>
      <trkpt lat="45.04169" lon="4.50058">
        <ele>529.1</ele>
      </trkpt>
      <trkpt lat="45.04158" lon="4.50038">
        <ele>530.5</ele>
      </trkpt>
      <trkpt lat="45.04145" lon="4.50019">
        <ele>530.4</ele>
      </trkpt>
      <trkpt lat="45.04134" lon="4.50002">
        <ele>529.6</ele>
      </trkpt>
      <trkpt lat="45.04129" lon="4.4999">
        <ele>530</ele>
      </trkpt>
      <trkpt lat="45.04126" lon="4.49972">
        <ele>531.6</ele>
      </trkpt>
      <trkpt lat="45.04122" lon="4.49945">
        <ele>534.1</ele>
      </trkpt>
      <trkpt lat="45.0412" lon="4.49923">
        <ele>536.1</ele>
      </trkpt>
      <trkpt lat="45.04116" lon="4.49902">
        <ele>537.9</ele>
      </trkpt>
      <trkpt lat="45.04112" lon="4.49887">
        <ele>539.1</ele>
      </trkpt>
      <trkpt lat="45.04105" lon="4.49868">
        <ele>539.6</ele>
      </trkpt>
      <trkpt lat="45.04097" lon="4.49848">
        <ele>540</ele>
      </trkpt>
      <trkpt lat="45.04086" lon="4.49808">
        <ele>542.8</ele>
      </trkpt>
      <trkpt lat="45.04073" lon="4.49768">
        <ele>546.8</ele>
      </trkpt>
      <trkpt lat="45.04067" lon="4.49744">
        <ele>549</ele>
      </trkpt>
      <trkpt lat="45.0406" lon="4.49733">
        <ele>548.8</ele>
      </trkpt>
      <trkpt lat="45.0405" lon="4.49712">
        <ele>548.8</ele>
      </trkpt>
      <trkpt lat="45.04036" lon="4.49684">
        <ele>548.7</ele>
      </trkpt>
      <trkpt lat="45.04025" lon="4.49663">
        <ele>548</ele>
      </trkpt>
      <trkpt lat="45.04021" lon="4.49656">
        <ele>547.3</ele>
      </trkpt>
      <trkpt lat="45.0403" lon="4.49642">
        <ele>552.4</ele>
      </trkpt>
      <trkpt lat="45.04025" lon="4.49633">
        <ele>551.6</ele>
        <extensions>
          <visugpx:TrkExtension xmlns:visugpx="https://www.visugpx.com/editgpx/">
            <visugpx:node>6</visugpx:node>
            </visugpx:TrkExtension>
        </extensions>
      </trkpt>
      <trkpt lat="45.0403" lon="4.49642">
        <ele>552.4</ele>
      </trkpt>
      <trkpt lat="45.0404" lon="4.4966">
        <ele>553.4</ele>
      </trkpt>
      <trkpt lat="45.04049" lon="4.49675">
        <ele>554.2</ele>
      </trkpt>
      <trkpt lat="45.0406" lon="4.49692">
        <ele>555</ele>
      </trkpt>
      <trkpt lat="45.04067" lon="4.49703">
        <ele>555.6</ele>
      </trkpt>
      <trkpt lat="45.04074" lon="4.49712">
        <ele>556.4</ele>
      </trkpt>
      <trkpt lat="45.0408" lon="4.49718">
        <ele>557.5</ele>
      </trkpt>
      <trkpt lat="45.04088" lon="4.49724">
        <ele>559.1</ele>
      </trkpt>
      <trkpt lat="45.04094" lon="4.49733">
        <ele>559.5</ele>
      </trkpt>
      <trkpt lat="45.04098" lon="4.49743">
        <ele>559.5</ele>
      </trkpt>
      <trkpt lat="45.04103" lon="4.49749">
        <ele>560.4</ele>
      </trkpt>
      <trkpt lat="45.04113" lon="4.49759">
        <ele>562.3</ele>
      </trkpt>
      <trkpt lat="45.04128" lon="4.49774">
        <ele>565.4</ele>
      </trkpt>
      <trkpt lat="45.0414" lon="4.49787">
        <ele>567.5</ele>
      </trkpt>
      <trkpt lat="45.04171" lon="4.49822">
        <ele>573</ele>
      </trkpt>
      <trkpt lat="45.04186" lon="4.49842">
        <ele>572.8</ele>
      </trkpt>
      <trkpt lat="45.04196" lon="4.49857">
        <ele>572.2</ele>
      </trkpt>
      <trkpt lat="45.04209" lon="4.49879">
        <ele>570.9</ele>
      </trkpt>
      <trkpt lat="45.04218" lon="4.49891">
        <ele>570.3</ele>
      </trkpt>
      <trkpt lat="45.04223" lon="4.49899">
        <ele>570</ele>
      </trkpt>
      <trkpt lat="45.04228" lon="4.499">
        <ele>570.8</ele>
      </trkpt>
      <trkpt lat="45.04231" lon="4.49899">
        <ele>571.6</ele>
      </trkpt>
      <trkpt lat="45.04231" lon="4.49896">
        <ele>572.3</ele>
      </trkpt>
      <trkpt lat="45.04229" lon="4.49886">
        <ele>573.7</ele>
      </trkpt>
      <trkpt lat="45.04226" lon="4.49877">
        <ele>575</ele>
      </trkpt>
      <trkpt lat="45.04225" lon="4.49864">
        <ele>577.4</ele>
      </trkpt>
      <trkpt lat="45.04224" lon="4.4985">
        <ele>579.6</ele>
      </trkpt>
      <trkpt lat="45.04224" lon="4.49838">
        <ele>582</ele>
      </trkpt>
      <trkpt lat="45.04224" lon="4.49831">
        <ele>583.4</ele>
      </trkpt>
      <trkpt lat="45.04226" lon="4.4983">
        <ele>584</ele>
      </trkpt>
      <trkpt lat="45.04229" lon="4.49831">
        <ele>584.5</ele>
      </trkpt>
      <trkpt lat="45.04231" lon="4.49835">
        <ele>584.3</ele>
      </trkpt>
      <trkpt lat="45.04234" lon="4.49844">
        <ele>583.1</ele>
      </trkpt>
      <trkpt lat="45.04236" lon="4.4985">
        <ele>582.5</ele>
      </trkpt>
      <trkpt lat="45.04239" lon="4.49853">
        <ele>582.5</ele>
      </trkpt>
      <trkpt lat="45.04241" lon="4.49853">
        <ele>583</ele>
      </trkpt>
      <trkpt lat="45.04243" lon="4.49852">
        <ele>583.6</ele>
      </trkpt>
      <trkpt lat="45.04244" lon="4.49849">
        <ele>584.5</ele>
      </trkpt>
      <trkpt lat="45.04243" lon="4.4984">
        <ele>586.1</ele>
      </trkpt>
      <trkpt lat="45.04241" lon="4.49829">
        <ele>587.4</ele>
      </trkpt>
      <trkpt lat="45.04241" lon="4.49818">
        <ele>588.6</ele>
      </trkpt>
      <trkpt lat="45.04243" lon="4.49807">
        <ele>590.1</ele>
      </trkpt>
      <trkpt lat="45.04244" lon="4.49796">
        <ele>591.4</ele>
      </trkpt>
      <trkpt lat="45.04244" lon="4.49784">
        <ele>592.7</ele>
      </trkpt>
      <trkpt lat="45.04243" lon="4.49769">
        <ele>593.9</ele>
      </trkpt>
      <trkpt lat="45.04242" lon="4.49753">
        <ele>595.4</ele>
      </trkpt>
      <trkpt lat="45.04242" lon="4.49743">
        <ele>596.8</ele>
      </trkpt>
      <trkpt lat="45.04244" lon="4.49731">
        <ele>598.6</ele>
      </trkpt>
      <trkpt lat="45.04245" lon="4.49718">
        <ele>600.5</ele>
      </trkpt>
      <trkpt lat="45.04245" lon="4.49713">
        <ele>601.2</ele>
      </trkpt>
      <trkpt lat="45.04243" lon="4.49702">
        <ele>602.4</ele>
      </trkpt>
      <trkpt lat="45.04244" lon="4.49693">
        <ele>603.7</ele>
      </trkpt>
      <trkpt lat="45.04246" lon="4.49684">
        <ele>605.1</ele>
      </trkpt>
      <trkpt lat="45.04248" lon="4.49676">
        <ele>606.5</ele>
      </trkpt>
      <trkpt lat="45.04248" lon="4.49668">
        <ele>607.5</ele>
      </trkpt>
      <trkpt lat="45.04245" lon="4.4966">
        <ele>608.3</ele>
      </trkpt>
      <trkpt lat="45.04242" lon="4.49652">
        <ele>609.1</ele>
      </trkpt>
      <trkpt lat="45.0424" lon="4.49642">
        <ele>610.2</ele>
      </trkpt>
      <trkpt lat="45.04239" lon="4.49635">
        <ele>611.2</ele>
      </trkpt>
      <trkpt lat="45.04239" lon="4.49625">
        <ele>612.7</ele>
      </trkpt>
      <trkpt lat="45.0424" lon="4.49613">
        <ele>614.6</ele>
      </trkpt>
      <trkpt lat="45.04241" lon="4.49601">
        <ele>616.5</ele>
      </trkpt>
      <trkpt lat="45.04241" lon="4.4959">
        <ele>618.1</ele>
      </trkpt>
      <trkpt lat="45.04239" lon="4.49582">
        <ele>619.2</ele>
      </trkpt>
      <trkpt lat="45.04236" lon="4.4957">
        <ele>620.6</ele>
      </trkpt>
      <trkpt lat="45.04233" lon="4.49555">
        <ele>622.4</ele>
      </trkpt>
      <trkpt lat="45.04229" lon="4.49548">
        <ele>623.3</ele>
        <extensions>
          <visugpx:TrkExtension xmlns:visugpx="https://www.visugpx.com/editgpx/">
            <visugpx:node>7</visugpx:node>
            </visugpx:TrkExtension>
        </extensions>
      </trkpt>
      <trkpt lat="45.04228" lon="4.49544">
        <ele>623.8</ele>
      </trkpt>
      <trkpt lat="45.04222" lon="4.49532">
        <ele>625.3</ele>
      </trkpt>
      <trkpt lat="45.04217" lon="4.49522">
        <ele>626.8</ele>
      </trkpt>
      <trkpt lat="45.04215" lon="4.49514">
        <ele>628.1</ele>
      </trkpt>
      <trkpt lat="45.04214" lon="4.49504">
        <ele>629.8</ele>
      </trkpt>
      <trkpt lat="45.04215" lon="4.4949">
        <ele>631.5</ele>
      </trkpt>
      <trkpt lat="45.04215" lon="4.49473">
        <ele>633.4</ele>
      </trkpt>
      <trkpt lat="45.04217" lon="4.49462">
        <ele>634.6</ele>
      </trkpt>
      <trkpt lat="45.04218" lon="4.49453">
        <ele>635.6</ele>
      </trkpt>
      <trkpt lat="45.04219" lon="4.49443">
        <ele>636.6</ele>
      </trkpt>
      <trkpt lat="45.04219" lon="4.49435">
        <ele>637.5</ele>
      </trkpt>
      <trkpt lat="45.0422" lon="4.4942">
        <ele>639.1</ele>
      </trkpt>
      <trkpt lat="45.04221" lon="4.49406">
        <ele>641.1</ele>
      </trkpt>
      <trkpt lat="45.04223" lon="4.49394">
        <ele>643.2</ele>
      </trkpt>
      <trkpt lat="45.04224" lon="4.49383">
        <ele>645</ele>
      </trkpt>
      <trkpt lat="45.04228" lon="4.49372">
        <ele>646.6</ele>
      </trkpt>
      <trkpt lat="45.0423" lon="4.49362">
        <ele>648.3</ele>
      </trkpt>
      <trkpt lat="45.04232" lon="4.49348">
        <ele>650.7</ele>
      </trkpt>
      <trkpt lat="45.04234" lon="4.49334">
        <ele>653.1</ele>
      </trkpt>
      <trkpt lat="45.04235" lon="4.49319">
        <ele>655.9</ele>
      </trkpt>
      <trkpt lat="45.04236" lon="4.49301">
        <ele>659.1</ele>
      </trkpt>
      <trkpt lat="45.04237" lon="4.49285">
        <ele>662</ele>
      </trkpt>
      <trkpt lat="45.04237" lon="4.49273">
        <ele>664.3</ele>
      </trkpt>
      <trkpt lat="45.04237" lon="4.49263">
        <ele>666</ele>
      </trkpt>
      <trkpt lat="45.04238" lon="4.49253">
        <ele>667.9</ele>
      </trkpt>
      <trkpt lat="45.04242" lon="4.49243">
        <ele>670.3</ele>
      </trkpt>
      <trkpt lat="45.04245" lon="4.49233">
        <ele>673.1</ele>
      </trkpt>
      <trkpt lat="45.04248" lon="4.49221">
        <ele>676.5</ele>
      </trkpt>
      <trkpt lat="45.04249" lon="4.49214">
        <ele>678.5</ele>
      </trkpt>
      <trkpt lat="45.04249" lon="4.49209">
        <ele>679.8</ele>
      </trkpt>
      <trkpt lat="45.04247" lon="4.49206">
        <ele>680.6</ele>
      </trkpt>
      <trkpt lat="45.04243" lon="4.49205">
        <ele>680.6</ele>
      </trkpt>
      <trkpt lat="45.04236" lon="4.49207">
        <ele>679.8</ele>
      </trkpt>
      <trkpt lat="45.04227" lon="4.4921">
        <ele>678.7</ele>
      </trkpt>
      <trkpt lat="45.0422" lon="4.49209">
        <ele>678.9</ele>
      </trkpt>
      <trkpt lat="45.04212" lon="4.49205">
        <ele>679.3</ele>
      </trkpt>
      <trkpt lat="45.04205" lon="4.492">
        <ele>680.2</ele>
      </trkpt>
      <trkpt lat="45.04198" lon="4.49194">
        <ele>680.9</ele>
      </trkpt>
      <trkpt lat="45.04192" lon="4.49187">
        <ele>681.9</ele>
      </trkpt>
      <trkpt lat="45.04189" lon="4.49181">
        <ele>682.9</ele>
      </trkpt>
      <trkpt lat="45.04189" lon="4.49173">
        <ele>684.2</ele>
      </trkpt>
      <trkpt lat="45.0419" lon="4.49166">
        <ele>685.6</ele>
      </trkpt>
      <trkpt lat="45.04191" lon="4.49155">
        <ele>687.3</ele>
      </trkpt>
      <trkpt lat="45.04196" lon="4.49146">
        <ele>689.4</ele>
      </trkpt>
      <trkpt lat="45.04247" lon="4.49104">
        <ele>708.5</ele>
      </trkpt>
      <trkpt lat="45.04255" lon="4.49099">
        <ele>709.9</ele>
      </trkpt>
      <trkpt lat="45.04258" lon="4.49092">
        <ele>711.2</ele>
      </trkpt>
      <trkpt lat="45.0426" lon="4.49083">
        <ele>713.5</ele>
      </trkpt>
      <trkpt lat="45.04261" lon="4.49071">
        <ele>714.7</ele>
      </trkpt>
      <trkpt lat="45.04262" lon="4.49059">
        <ele>715.9</ele>
      </trkpt>
      <trkpt lat="45.04265" lon="4.49048">
        <ele>717</ele>
      </trkpt>
      <trkpt lat="45.04266" lon="4.49039">
        <ele>717.9</ele>
      </trkpt>
      <trkpt lat="45.04264" lon="4.4903">
        <ele>719.2</ele>
      </trkpt>
      <trkpt lat="45.04261" lon="4.49024">
        <ele>720.5</ele>
      </trkpt>
      <trkpt lat="45.04257" lon="4.49016">
        <ele>722</ele>
      </trkpt>
      <trkpt lat="45.04256" lon="4.49006">
        <ele>723.3</ele>
      </trkpt>
      <trkpt lat="45.04256" lon="4.48991">
        <ele>725.4</ele>
      </trkpt>
      <trkpt lat="45.04257" lon="4.48979">
        <ele>726.7</ele>
      </trkpt>
      <trkpt lat="45.04256" lon="4.48971">
        <ele>728</ele>
      </trkpt>
      <trkpt lat="45.04256" lon="4.48962">
        <ele>729.4</ele>
      </trkpt>
      <trkpt lat="45.04255" lon="4.48952">
        <ele>730.8</ele>
      </trkpt>
      <trkpt lat="45.04254" lon="4.48939">
        <ele>732.9</ele>
      </trkpt>
      <trkpt lat="45.04254" lon="4.48925">
        <ele>734.8</ele>
      </trkpt>
      <trkpt lat="45.04256" lon="4.48914">
        <ele>735.8</ele>
      </trkpt>
      <trkpt lat="45.04256" lon="4.48902">
        <ele>737.1</ele>
      </trkpt>
      <trkpt lat="45.04254" lon="4.48891">
        <ele>738.9</ele>
      </trkpt>
      <trkpt lat="45.04253" lon="4.48881">
        <ele>740.5</ele>
      </trkpt>
      <trkpt lat="45.04253" lon="4.48872">
        <ele>741.6</ele>
      </trkpt>
      <trkpt lat="45.04256" lon="4.48863">
        <ele>741.8</ele>
      </trkpt>
      <trkpt lat="45.04255" lon="4.48857">
        <ele>742.8</ele>
      </trkpt>
      <trkpt lat="45.04253" lon="4.4885">
        <ele>744.3</ele>
      </trkpt>
      <trkpt lat="45.04253" lon="4.48841">
        <ele>745.2</ele>
      </trkpt>
      <trkpt lat="45.04252" lon="4.48834">
        <ele>746.4</ele>
      </trkpt>
      <trkpt lat="45.04248" lon="4.48828">
        <ele>747.1</ele>
      </trkpt>
      <trkpt lat="45.04247" lon="4.48818">
        <ele>747.8</ele>
      </trkpt>
      <trkpt lat="45.04248" lon="4.4881">
        <ele>749.1</ele>
      </trkpt>
      <trkpt lat="45.0425" lon="4.48802">
        <ele>750.3</ele>
      </trkpt>
      <trkpt lat="45.04252" lon="4.48793">
        <ele>750.9</ele>
      </trkpt>
      <trkpt lat="45.04246" lon="4.48783">
        <ele>751.4</ele>
      </trkpt>
      <trkpt lat="45.04238" lon="4.48774">
        <ele>750.7</ele>
      </trkpt>
      <trkpt lat="45.04227" lon="4.48759">
        <ele>750.4</ele>
      </trkpt>
      <trkpt lat="45.04216" lon="4.48739">
        <ele>751.3</ele>
      </trkpt>
      <trkpt lat="45.04202" lon="4.48716">
        <ele>752.6</ele>
      </trkpt>
      <trkpt lat="45.04177" lon="4.48674">
        <ele>756.1</ele>
      </trkpt>
      <trkpt lat="45.04172" lon="4.48662">
        <ele>757.7</ele>
      </trkpt>
      <trkpt lat="45.04183" lon="4.48663">
        <ele>759.1</ele>
      </trkpt>
      <trkpt lat="45.04188" lon="4.48664">
        <ele>759.5</ele>
        <extensions>
          <visugpx:TrkExtension xmlns:visugpx="https://www.visugpx.com/editgpx/">
            <visugpx:node>8</visugpx:node>
            </visugpx:TrkExtension>
        </extensions>
      </trkpt>
      <trkpt lat="45.04195" lon="4.48666">
        <ele>760.1</ele>
      </trkpt>
      <trkpt lat="45.04202" lon="4.48668">
        <ele>760.9</ele>
      </trkpt>
      <trkpt lat="45.04205" lon="4.48667">
        <ele>761.4</ele>
      </trkpt>
      <trkpt lat="45.04207" lon="4.48665">
        <ele>762.1</ele>
      </trkpt>
      <trkpt lat="45.04207" lon="4.48661">
        <ele>762.8</ele>
      </trkpt>
      <trkpt lat="45.04205" lon="4.48657">
        <ele>763.1</ele>
      </trkpt>
      <trkpt lat="45.04204" lon="4.48647">
        <ele>764.8</ele>
      </trkpt>
      <trkpt lat="45.04197" lon="4.48636">
        <ele>766.1</ele>
      </trkpt>
      <trkpt lat="45.0419" lon="4.48627">
        <ele>767</ele>
      </trkpt>
      <trkpt lat="45.04182" lon="4.4862">
        <ele>767.4</ele>
      </trkpt>
      <trkpt lat="45.0418" lon="4.48615">
        <ele>768.4</ele>
      </trkpt>
      <trkpt lat="45.0418" lon="4.48609">
        <ele>769.5</ele>
      </trkpt>
      <trkpt lat="45.04182" lon="4.48601">
        <ele>771.3</ele>
      </trkpt>
      <trkpt lat="45.04184" lon="4.48592">
        <ele>773.4</ele>
      </trkpt>
      <trkpt lat="45.04186" lon="4.48583">
        <ele>775.2</ele>
      </trkpt>
      <trkpt lat="45.04186" lon="4.48577">
        <ele>776.1</ele>
      </trkpt>
      <trkpt lat="45.04185" lon="4.48568">
        <ele>777.4</ele>
      </trkpt>
      <trkpt lat="45.04186" lon="4.48559">
        <ele>778.7</ele>
      </trkpt>
      <trkpt lat="45.04187" lon="4.48551">
        <ele>779.9</ele>
      </trkpt>
      <trkpt lat="45.04188" lon="4.48543">
        <ele>781</ele>
      </trkpt>
      <trkpt lat="45.04197" lon="4.48522">
        <ele>784.3</ele>
      </trkpt>
      <trkpt lat="45.04209" lon="4.48495">
        <ele>787.9</ele>
      </trkpt>
      <trkpt lat="45.0422" lon="4.48461">
        <ele>790.7</ele>
      </trkpt>
      <trkpt lat="45.04227" lon="4.48444">
        <ele>791.9</ele>
      </trkpt>
      <trkpt lat="45.0423" lon="4.48435">
        <ele>792.6</ele>
      </trkpt>
      <trkpt lat="45.04233" lon="4.48432">
        <ele>792.9</ele>
      </trkpt>
      <trkpt lat="45.04235" lon="4.48427">
        <ele>793.2</ele>
      </trkpt>
      <trkpt lat="45.04237" lon="4.48409">
        <ele>794.2</ele>
      </trkpt>
      <trkpt lat="45.04238" lon="4.48388">
        <ele>794.9</ele>
      </trkpt>
      <trkpt lat="45.04239" lon="4.48385">
        <ele>795</ele>
        <extensions>
          <visugpx:TrkExtension xmlns:visugpx="https://www.visugpx.com/editgpx/">
            <visugpx:node>9</visugpx:node>
            </visugpx:TrkExtension>
        </extensions>
      </trkpt>
      <trkpt lat="45.0424" lon="4.48362">
        <ele>795.8</ele>
      </trkpt>
      <trkpt lat="45.04241" lon="4.48349">
        <ele>796.3</ele>
      </trkpt>
      <trkpt lat="45.0424" lon="4.48336">
        <ele>796.7</ele>
      </trkpt>
      <trkpt lat="45.0424" lon="4.48322">
        <ele>795.9</ele>
      </trkpt>
      <trkpt lat="45.04238" lon="4.48308">
        <ele>794.6</ele>
      </trkpt>
      <trkpt lat="45.04237" lon="4.48295">
        <ele>793.5</ele>
      </trkpt>
      <trkpt lat="45.04234" lon="4.48283">
        <ele>792.3</ele>
      </trkpt>
      <trkpt lat="45.04232" lon="4.48276">
        <ele>791.5</ele>
      </trkpt>
      <trkpt lat="45.0423" lon="4.48269">
        <ele>790.7</ele>
      </trkpt>
      <trkpt lat="45.04227" lon="4.48264">
        <ele>790</ele>
      </trkpt>
      <trkpt lat="45.04225" lon="4.4826">
        <ele>789.5</ele>
      </trkpt>
      <trkpt lat="45.04224" lon="4.48253">
        <ele>788.8</ele>
      </trkpt>
      <trkpt lat="45.04224" lon="4.48244">
        <ele>787.6</ele>
      </trkpt>
      <trkpt lat="45.04225" lon="4.48236">
        <ele>786.3</ele>
      </trkpt>
      <trkpt lat="45.04226" lon="4.48226">
        <ele>784.6</ele>
      </trkpt>
      <trkpt lat="45.04227" lon="4.48213">
        <ele>782.4</ele>
      </trkpt>
      <trkpt lat="45.04228" lon="4.48192">
        <ele>778.9</ele>
      </trkpt>
      <trkpt lat="45.04228" lon="4.48172">
        <ele>775.6</ele>
      </trkpt>
      <trkpt lat="45.04228" lon="4.48155">
        <ele>773</ele>
      </trkpt>
      <trkpt lat="45.04228" lon="4.48141">
        <ele>771.2</ele>
      </trkpt>
      <trkpt lat="45.04231" lon="4.48131">
        <ele>770.2</ele>
      </trkpt>
      <trkpt lat="45.04235" lon="4.48113">
        <ele>768.8</ele>
      </trkpt>
      <trkpt lat="45.04244" lon="4.48081">
        <ele>766.4</ele>
      </trkpt>
      <trkpt lat="45.04247" lon="4.48062">
        <ele>765.9</ele>
      </trkpt>
      <trkpt lat="45.04248" lon="4.48036">
        <ele>764.8</ele>
      </trkpt>
      <trkpt lat="45.04252" lon="4.48">
        <ele>762.7</ele>
      </trkpt>
      <trkpt lat="45.04254" lon="4.47978">
        <ele>761.3</ele>
      </trkpt>
      <trkpt lat="45.04256" lon="4.4796">
        <ele>760.2</ele>
      </trkpt>
      <trkpt lat="45.04257" lon="4.47949">
        <ele>759.6</ele>
      </trkpt>
      <trkpt lat="45.04258" lon="4.47935">
        <ele>758.8</ele>
      </trkpt>
      <trkpt lat="45.0426" lon="4.47909">
        <ele>757.6</ele>
      </trkpt>
      <trkpt lat="45.04265" lon="4.47883">
        <ele>756.7</ele>
      </trkpt>
      <trkpt lat="45.0427" lon="4.47861">
        <ele>756.3</ele>
      </trkpt>
      <trkpt lat="45.04275" lon="4.47841">
        <ele>756.2</ele>
      </trkpt>
      <trkpt lat="45.0428" lon="4.47819">
        <ele>756</ele>
      </trkpt>
      <trkpt lat="45.04287" lon="4.47801">
        <ele>756.1</ele>
      </trkpt>
      <trkpt lat="45.04292" lon="4.47788">
        <ele>756.6</ele>
      </trkpt>
      <trkpt lat="45.04301" lon="4.47773">
        <ele>757.7</ele>
      </trkpt>
      <trkpt lat="45.04312" lon="4.4776">
        <ele>759.8</ele>
      </trkpt>
      <trkpt lat="45.04321" lon="4.47751">
        <ele>761.7</ele>
      </trkpt>
      <trkpt lat="45.04325" lon="4.47742">
        <ele>762.3</ele>
      </trkpt>
      <trkpt lat="45.04334" lon="4.4772">
        <ele>763.6</ele>
      </trkpt>
      <trkpt lat="45.04341" lon="4.47704">
        <ele>762.6</ele>
      </trkpt>
      <trkpt lat="45.04352" lon="4.47683">
        <ele>761.7</ele>
      </trkpt>
      <trkpt lat="45.04355" lon="4.47676">
        <ele>761.6</ele>
      </trkpt>
      <trkpt lat="45.04363" lon="4.47651">
        <ele>761.8</ele>
      </trkpt>
      <trkpt lat="45.0437" lon="4.47625">
        <ele>763</ele>
      </trkpt>
      <trkpt lat="45.04374" lon="4.47609">
        <ele>763.9</ele>
      </trkpt>
      <trkpt lat="45.04375" lon="4.47604">
        <ele>764.3</ele>
      </trkpt>
      <trkpt lat="45.04378" lon="4.47595">
        <ele>765</ele>
      </trkpt>
      <trkpt lat="45.04386" lon="4.47572">
        <ele>767</ele>
      </trkpt>
      <trkpt lat="45.04392" lon="4.47556">
        <ele>768.5</ele>
      </trkpt>
      <trkpt lat="45.04396" lon="4.47544">
        <ele>769.7</ele>
      </trkpt>
      <trkpt lat="45.04401" lon="4.47524">
        <ele>771.7</ele>
      </trkpt>
      <trkpt lat="45.04405" lon="4.4751">
        <ele>773.4</ele>
      </trkpt>
      <trkpt lat="45.04411" lon="4.4749">
        <ele>775.2</ele>
      </trkpt>
      <trkpt lat="45.04419" lon="4.47467">
        <ele>776.7</ele>
      </trkpt>
      <trkpt lat="45.04423" lon="4.47453">
        <ele>777</ele>
      </trkpt>
      <trkpt lat="45.0443" lon="4.4743">
        <ele>777.8</ele>
      </trkpt>
      <trkpt lat="45.04434" lon="4.47419">
        <ele>778.5</ele>
      </trkpt>
      <trkpt lat="45.04441" lon="4.47408">
        <ele>778.4</ele>
      </trkpt>
      <trkpt lat="45.04448" lon="4.47399">
        <ele>778.5</ele>
      </trkpt>
      <trkpt lat="45.04458" lon="4.4739">
        <ele>779.2</ele>
      </trkpt>
      <trkpt lat="45.04472" lon="4.47381">
        <ele>780.8</ele>
        <extensions>
          <visugpx:TrkExtension xmlns:visugpx="https://www.visugpx.com/editgpx/">
            <visugpx:node>10</visugpx:node>
            </visugpx:TrkExtension>
        </extensions>
      </trkpt>
      <trkpt lat="45.04484" lon="4.47379">
        <ele>782.5</ele>
      </trkpt>
      <trkpt lat="45.04493" lon="4.47379">
        <ele>783.7</ele>
      </trkpt>
      <trkpt lat="45.045" lon="4.47377">
        <ele>784.8</ele>
      </trkpt>
      <trkpt lat="45.04506" lon="4.47374">
        <ele>786.5</ele>
      </trkpt>
      <trkpt lat="45.04513" lon="4.47369">
        <ele>788.8</ele>
      </trkpt>
      <trkpt lat="45.04525" lon="4.47366">
        <ele>792.1</ele>
      </trkpt>
      <trkpt lat="45.04536" lon="4.47365">
        <ele>795.2</ele>
      </trkpt>
      <trkpt lat="45.04546" lon="4.47365">
        <ele>797.6</ele>
      </trkpt>
      <trkpt lat="45.04555" lon="4.47367">
        <ele>799.6</ele>
      </trkpt>
      <trkpt lat="45.04566" lon="4.47369">
        <ele>802.1</ele>
      </trkpt>
      <trkpt lat="45.04575" lon="4.4737">
        <ele>804.4</ele>
      </trkpt>
      <trkpt lat="45.04587" lon="4.4737">
        <ele>806.9</ele>
      </trkpt>
      <trkpt lat="45.04595" lon="4.4737">
        <ele>808.1</ele>
      </trkpt>
      <trkpt lat="45.046" lon="4.47371">
        <ele>808.7</ele>
      </trkpt>
      <trkpt lat="45.04608" lon="4.47368">
        <ele>810.3</ele>
      </trkpt>
      <trkpt lat="45.04619" lon="4.47365">
        <ele>812.7</ele>
      </trkpt>
      <trkpt lat="45.04626" lon="4.47364">
        <ele>814</ele>
      </trkpt>
      <trkpt lat="45.04632" lon="4.47366">
        <ele>814.4</ele>
      </trkpt>
      <trkpt lat="45.0464" lon="4.47367">
        <ele>815.4</ele>
      </trkpt>
      <trkpt lat="45.04648" lon="4.47366">
        <ele>816.8</ele>
      </trkpt>
      <trkpt lat="45.04654" lon="4.47364">
        <ele>818.2</ele>
      </trkpt>
      <trkpt lat="45.04655" lon="4.47363">
        <ele>818.7</ele>
        <extensions>
          <visugpx:TrkExtension xmlns:visugpx="https://www.visugpx.com/editgpx/">
            <visugpx:node>11</visugpx:node>
            </visugpx:TrkExtension>
        </extensions>
      </trkpt>
      <trkpt lat="45.04657" lon="4.47361">
        <ele>819.6</ele>
      </trkpt>
      <trkpt lat="45.0466" lon="4.47353">
        <ele>822.3</ele>
      </trkpt>
      <trkpt lat="45.04656" lon="4.47348">
        <ele>822.9</ele>
      </trkpt>
      <trkpt lat="45.04654" lon="4.47341">
        <ele>824.6</ele>
      </trkpt>
      <trkpt lat="45.0465" lon="4.47322">
        <ele>828.9</ele>
      </trkpt>
      <trkpt lat="45.04646" lon="4.473">
        <ele>833.8</ele>
      </trkpt>
      <trkpt lat="45.04643" lon="4.47276">
        <ele>839.1</ele>
      </trkpt>
      <trkpt lat="45.04641" lon="4.47261">
        <ele>842.3</ele>
      </trkpt>
      <trkpt lat="45.0464" lon="4.47243">
        <ele>845.9</ele>
      </trkpt>
      <trkpt lat="45.0464" lon="4.47231">
        <ele>847.2</ele>
      </trkpt>
      <trkpt lat="45.04641" lon="4.47219">
        <ele>849</ele>
      </trkpt>
      <trkpt lat="45.04643" lon="4.47204">
        <ele>851.8</ele>
      </trkpt>
      <trkpt lat="45.04646" lon="4.47187">
        <ele>855.4</ele>
      </trkpt>
      <trkpt lat="45.04648" lon="4.47169">
        <ele>858.5</ele>
      </trkpt>
      <trkpt lat="45.0465" lon="4.47156">
        <ele>861.3</ele>
      </trkpt>
      <trkpt lat="45.04652" lon="4.47144">
        <ele>863.9</ele>
      </trkpt>
      <trkpt lat="45.04657" lon="4.47128">
        <ele>868.4</ele>
      </trkpt>
      <trkpt lat="45.04663" lon="4.47116">
        <ele>872.6</ele>
      </trkpt>
      <trkpt lat="45.04671" lon="4.47106">
        <ele>876.9</ele>
      </trkpt>
      <trkpt lat="45.04676" lon="4.4709">
        <ele>880.8</ele>
      </trkpt>
      <trkpt lat="45.04681" lon="4.47077">
        <ele>884</ele>
      </trkpt>
      <trkpt lat="45.04682" lon="4.47063">
        <ele>886.1</ele>
      </trkpt>
      <trkpt lat="45.04682" lon="4.47043">
        <ele>888.7</ele>
      </trkpt>
      <trkpt lat="45.0468" lon="4.47024">
        <ele>890.6</ele>
      </trkpt>
      <trkpt lat="45.04678" lon="4.47012">
        <ele>891.5</ele>
      </trkpt>
      <trkpt lat="45.04676" lon="4.46995">
        <ele>892.6</ele>
      </trkpt>
      <trkpt lat="45.04676" lon="4.46979">
        <ele>892.8</ele>
      </trkpt>
      <trkpt lat="45.04675" lon="4.46964">
        <ele>893</ele>
      </trkpt>
      <trkpt lat="45.04676" lon="4.46948">
        <ele>893.7</ele>
      </trkpt>
      <trkpt lat="45.04676" lon="4.46932">
        <ele>894.3</ele>
      </trkpt>
      <trkpt lat="45.04677" lon="4.46917">
        <ele>894.9</ele>
      </trkpt>
      <trkpt lat="45.04676" lon="4.46901">
        <ele>896.5</ele>
      </trkpt>
      <trkpt lat="45.04674" lon="4.46883">
        <ele>897.8</ele>
      </trkpt>
      <trkpt lat="45.04673" lon="4.46864">
        <ele>899.4</ele>
      </trkpt>
      <trkpt lat="45.04668" lon="4.46838">
        <ele>900.9</ele>
      </trkpt>
      <trkpt lat="45.04665" lon="4.46818">
        <ele>903.2</ele>
      </trkpt>
      <trkpt lat="45.04665" lon="4.468">
        <ele>906.1</ele>
      </trkpt>
      <trkpt lat="45.04664" lon="4.46778">
        <ele>909.6</ele>
      </trkpt>
      <trkpt lat="45.04662" lon="4.46758">
        <ele>912.4</ele>
      </trkpt>
      <trkpt lat="45.04659" lon="4.46739">
        <ele>913.1</ele>
      </trkpt>
      <trkpt lat="45.04655" lon="4.46724">
        <ele>912.6</ele>
      </trkpt>
      <trkpt lat="45.04654" lon="4.46711">
        <ele>913.4</ele>
      </trkpt>
      <trkpt lat="45.04654" lon="4.46699">
        <ele>914.8</ele>
      </trkpt>
      <trkpt lat="45.04656" lon="4.46687">
        <ele>916.9</ele>
      </trkpt>
      <trkpt lat="45.04658" lon="4.46679">
        <ele>918.6</ele>
      </trkpt>
      <trkpt lat="45.0466" lon="4.46675">
        <ele>920.1</ele>
      </trkpt>
      <trkpt lat="45.04667" lon="4.46683">
        <ele>922.6</ele>
      </trkpt>
      <trkpt lat="45.04677" lon="4.46697">
        <ele>923.9</ele>
      </trkpt>
      <trkpt lat="45.04687" lon="4.4671">
        <ele>925.2</ele>
      </trkpt>
      <trkpt lat="45.04696" lon="4.46724">
        <ele>926.5</ele>
      </trkpt>
      <trkpt lat="45.04704" lon="4.46733">
        <ele>928.2</ele>
      </trkpt>
      <trkpt lat="45.04712" lon="4.46744">
        <ele>929.4</ele>
      </trkpt>
      <trkpt lat="45.04719" lon="4.46748">
        <ele>931.2</ele>
      </trkpt>
      <trkpt lat="45.04724" lon="4.46752">
        <ele>932.3</ele>
      </trkpt>
      <trkpt lat="45.04734" lon="4.46769">
        <ele>932.8</ele>
      </trkpt>
      <trkpt lat="45.04741" lon="4.46781">
        <ele>933.6</ele>
      </trkpt>
      <trkpt lat="45.0475" lon="4.4679">
        <ele>935.2</ele>
      </trkpt>
      <trkpt lat="45.04758" lon="4.46793">
        <ele>934.5</ele>
      </trkpt>
      <trkpt lat="45.04766" lon="4.46793">
        <ele>934.1</ele>
      </trkpt>
      <trkpt lat="45.04773" lon="4.46791">
        <ele>934</ele>
      </trkpt>
      <trkpt lat="45.0478" lon="4.46785">
        <ele>934.1</ele>
      </trkpt>
      <trkpt lat="45.04776" lon="4.46767">
        <ele>935.8</ele>
      </trkpt>
      <trkpt lat="45.04773" lon="4.46749">
        <ele>937.6</ele>
      </trkpt>
      <trkpt lat="45.04768" lon="4.4672">
        <ele>939.7</ele>
      </trkpt>
      <trkpt lat="45.04763" lon="4.46705">
        <ele>941.1</ele>
      </trkpt>
      <trkpt lat="45.0476" lon="4.46693">
        <ele>942.2</ele>
      </trkpt>
      <trkpt lat="45.04756" lon="4.46667">
        <ele>944.2</ele>
      </trkpt>
      <trkpt lat="45.04754" lon="4.46649">
        <ele>945.1</ele>
      </trkpt>
      <trkpt lat="45.04752" lon="4.46629">
        <ele>946.1</ele>
        <extensions>
          <visugpx:TrkExtension xmlns:visugpx="https://www.visugpx.com/editgpx/">
            <visugpx:node>13</visugpx:node>
            </visugpx:TrkExtension>
        </extensions>
      </trkpt>
      <trkpt lat="45.04752" lon="4.46627">
        <ele>946.2</ele>
      </trkpt>
      <trkpt lat="45.04749" lon="4.46598">
        <ele>947.3</ele>
      </trkpt>
      <trkpt lat="45.04746" lon="4.46579">
        <ele>947.5</ele>
      </trkpt>
      <trkpt lat="45.0474" lon="4.46564">
        <ele>947.7</ele>
      </trkpt>
      <trkpt lat="45.04733" lon="4.46546">
        <ele>948.2</ele>
      </trkpt>
      <trkpt lat="45.04726" lon="4.46523">
        <ele>949.4</ele>
      </trkpt>
      <trkpt lat="45.04722" lon="4.46505">
        <ele>950.8</ele>
      </trkpt>
      <trkpt lat="45.04717" lon="4.46482">
        <ele>952.5</ele>
      </trkpt>
      <trkpt lat="45.04712" lon="4.4646">
        <ele>954.1</ele>
      </trkpt>
      <trkpt lat="45.04708" lon="4.46439">
        <ele>955.8</ele>
      </trkpt>
      <trkpt lat="45.04702" lon="4.46421">
        <ele>957.2</ele>
      </trkpt>
      <trkpt lat="45.04696" lon="4.46406">
        <ele>958.2</ele>
      </trkpt>
      <trkpt lat="45.0469" lon="4.46383">
        <ele>959.7</ele>
      </trkpt>
      <trkpt lat="45.04684" lon="4.46359">
        <ele>961.5</ele>
      </trkpt>
      <trkpt lat="45.0468" lon="4.46333">
        <ele>963.7</ele>
      </trkpt>
      <trkpt lat="45.04675" lon="4.46303">
        <ele>966.9</ele>
      </trkpt>
      <trkpt lat="45.04671" lon="4.46286">
        <ele>968.8</ele>
      </trkpt>
      <trkpt lat="45.04666" lon="4.46265">
        <ele>971.1</ele>
      </trkpt>
      <trkpt lat="45.04661" lon="4.46244">
        <ele>971.8</ele>
      </trkpt>
      <trkpt lat="45.04656" lon="4.46227">
        <ele>971.6</ele>
      </trkpt>
      <trkpt lat="45.0465" lon="4.4621">
        <ele>971.2</ele>
      </trkpt>
      <trkpt lat="45.04647" lon="4.46196">
        <ele>971.5</ele>
      </trkpt>
      <trkpt lat="45.04645" lon="4.46186">
        <ele>971.9</ele>
      </trkpt>
      <trkpt lat="45.04644" lon="4.46175">
        <ele>972.5</ele>
      </trkpt>
      <trkpt lat="45.04642" lon="4.46165">
        <ele>972.9</ele>
      </trkpt>
      <trkpt lat="45.04638" lon="4.46152">
        <ele>972.8</ele>
      </trkpt>
      <trkpt lat="45.04636" lon="4.46136">
        <ele>973.4</ele>
      </trkpt>
      <trkpt lat="45.04634" lon="4.46119">
        <ele>974.3</ele>
      </trkpt>
      <trkpt lat="45.04632" lon="4.46101">
        <ele>975.3</ele>
      </trkpt>
      <trkpt lat="45.04631" lon="4.46082">
        <ele>976.6</ele>
      </trkpt>
      <trkpt lat="45.04631" lon="4.46067">
        <ele>977.9</ele>
      </trkpt>
      <trkpt lat="45.04631" lon="4.46052">
        <ele>979.2</ele>
      </trkpt>
      <trkpt lat="45.04633" lon="4.46037">
        <ele>980.7</ele>
      </trkpt>
      <trkpt lat="45.04635" lon="4.46016">
        <ele>982.7</ele>
      </trkpt>
      <trkpt lat="45.04637" lon="4.45998">
        <ele>984.3</ele>
      </trkpt>
      <trkpt lat="45.04638" lon="4.45984">
        <ele>985.1</ele>
      </trkpt>
      <trkpt lat="45.04637" lon="4.45984">
        <ele>985</ele>
        <extensions>
          <visugpx:TrkExtension xmlns:visugpx="https://www.visugpx.com/editgpx/">
            <visugpx:node>14</visugpx:node>
            </visugpx:TrkExtension>
        </extensions>
      </trkpt>
      <trkpt lat="45.04632" lon="4.4598">
        <ele>984.7</ele>
      </trkpt>
      <trkpt lat="45.04635" lon="4.45968">
        <ele>985.6</ele>
      </trkpt>
      <trkpt lat="45.04637" lon="4.45955">
        <ele>986.5</ele>
      </trkpt>
      <trkpt lat="45.04638" lon="4.45943">
        <ele>987.2</ele>
      </trkpt>
      <trkpt lat="45.04638" lon="4.45935">
        <ele>987.7</ele>
      </trkpt>
      <trkpt lat="45.04637" lon="4.45928">
        <ele>987.9</ele>
      </trkpt>
      <trkpt lat="45.04635" lon="4.45918">
        <ele>988.2</ele>
      </trkpt>
      <trkpt lat="45.04634" lon="4.45908">
        <ele>988.5</ele>
      </trkpt>
      <trkpt lat="45.04634" lon="4.45899">
        <ele>988.8</ele>
      </trkpt>
      <trkpt lat="45.04635" lon="4.4589">
        <ele>989.1</ele>
      </trkpt>
      <trkpt lat="45.04635" lon="4.45878">
        <ele>989.7</ele>
      </trkpt>
      <trkpt lat="45.04636" lon="4.45864">
        <ele>990.4</ele>
      </trkpt>
      <trkpt lat="45.04637" lon="4.45845">
        <ele>991.2</ele>
      </trkpt>
      <trkpt lat="45.04638" lon="4.45827">
        <ele>992.2</ele>
      </trkpt>
      <trkpt lat="45.04638" lon="4.45813">
        <ele>993.1</ele>
      </trkpt>
      <trkpt lat="45.04635" lon="4.45807">
        <ele>992.8</ele>
      </trkpt>
      <trkpt lat="45.04627" lon="4.45799">
        <ele>991.8</ele>
      </trkpt>
      <trkpt lat="45.0462" lon="4.45784">
        <ele>991.2</ele>
      </trkpt>
      <trkpt lat="45.04615" lon="4.45772">
        <ele>990.7</ele>
      </trkpt>
      <trkpt lat="45.0461" lon="4.45764">
        <ele>990</ele>
      </trkpt>
      <trkpt lat="45.04599" lon="4.45752">
        <ele>988.3</ele>
      </trkpt>
      <trkpt lat="45.04589" lon="4.4574">
        <ele>987.2</ele>
      </trkpt>
      <trkpt lat="45.04585" lon="4.45732">
        <ele>987.1</ele>
      </trkpt>
      <trkpt lat="45.0458" lon="4.45722">
        <ele>986.3</ele>
      </trkpt>
      <trkpt lat="45.04576" lon="4.45714">
        <ele>985</ele>
      </trkpt>
      <trkpt lat="45.04573" lon="4.45702">
        <ele>984.5</ele>
      </trkpt>
      <trkpt lat="45.04573" lon="4.45689">
        <ele>985.7</ele>
      </trkpt>
      <trkpt lat="45.04573" lon="4.45684">
        <ele>986.1</ele>
      </trkpt>
      <trkpt lat="45.04573" lon="4.45678">
        <ele>986.7</ele>
      </trkpt>
      <trkpt lat="45.04572" lon="4.45667">
        <ele>987.1</ele>
      </trkpt>
      <trkpt lat="45.04569" lon="4.45661">
        <ele>986.7</ele>
        <extensions>
          <visugpx:TrkExtension xmlns:visugpx="https://www.visugpx.com/editgpx/">
            <visugpx:node>15</visugpx:node>
            </visugpx:TrkExtension>
        </extensions>
      </trkpt>
      <trkpt lat="45.04567" lon="4.45658">
        <ele>986.5</ele>
      </trkpt>
      <trkpt lat="45.04561" lon="4.45644">
        <ele>986.1</ele>
      </trkpt>
      <trkpt lat="45.04552" lon="4.45633">
        <ele>983.7</ele>
      </trkpt>
      <trkpt lat="45.04533" lon="4.45621">
        <ele>977.7</ele>
      </trkpt>
      <trkpt lat="45.04523" lon="4.45616">
        <ele>974.2</ele>
      </trkpt>
      <trkpt lat="45.04519" lon="4.45611">
        <ele>973.6</ele>
      </trkpt>
      <trkpt lat="45.04517" lon="4.45605">
        <ele>974</ele>
      </trkpt>
      <trkpt lat="45.04513" lon="4.45596">
        <ele>974.3</ele>
      </trkpt>
      <trkpt lat="45.04503" lon="4.45584">
        <ele>973.1</ele>
      </trkpt>
      <trkpt lat="45.04492" lon="4.45572">
        <ele>971.6</ele>
      </trkpt>
      <trkpt lat="45.0448" lon="4.45558">
        <ele>970.8</ele>
      </trkpt>
      <trkpt lat="45.04463" lon="4.45547">
        <ele>967</ele>
      </trkpt>
      <trkpt lat="45.04447" lon="4.45539">
        <ele>962.7</ele>
      </trkpt>
      <trkpt lat="45.04439" lon="4.45534">
        <ele>961.1</ele>
      </trkpt>
      <trkpt lat="45.04433" lon="4.45529">
        <ele>960.2</ele>
      </trkpt>
      <trkpt lat="45.04422" lon="4.4553">
        <ele>955.5</ele>
      </trkpt>
      <trkpt lat="45.04398" lon="4.45516">
        <ele>949.3</ele>
        <extensions>
          <visugpx:TrkExtension xmlns:visugpx="https://www.visugpx.com/editgpx/">
            <visugpx:node>16</visugpx:node>
            </visugpx:TrkExtension>
        </extensions>
      </trkpt>
      <trkpt lat="45.04385" lon="4.45487">
        <ele>951.4</ele>
      </trkpt>
      <trkpt lat="45.04373" lon="4.45452">
        <ele>955.2</ele>
      </trkpt>
      <trkpt lat="45.04355" lon="4.45432">
        <ele>954.4</ele>
      </trkpt>
      <trkpt lat="45.04343" lon="4.45421">
        <ele>953.6</ele>
      </trkpt>
      <trkpt lat="45.04335" lon="4.45414">
        <ele>953.5</ele>
      </trkpt>
      <trkpt lat="45.04327" lon="4.45418">
        <ele>951.6</ele>
      </trkpt>
      <trkpt lat="45.04318" lon="4.45426">
        <ele>948.8</ele>
      </trkpt>
      <trkpt lat="45.04298" lon="4.45449">
        <ele>940.3</ele>
      </trkpt>
      <trkpt lat="45.04279" lon="4.45469">
        <ele>932.3</ele>
      </trkpt>
      <trkpt lat="45.04267" lon="4.45487">
        <ele>924.9</ele>
      </trkpt>
      <trkpt lat="45.04262" lon="4.45492">
        <ele>922.6</ele>
      </trkpt>
      <trkpt lat="45.04253" lon="4.45496">
        <ele>920.7</ele>
      </trkpt>
      <trkpt lat="45.04235" lon="4.45499">
        <ele>916.9</ele>
      </trkpt>
      <trkpt lat="45.04218" lon="4.45498">
        <ele>914.7</ele>
      </trkpt>
      <trkpt lat="45.04207" lon="4.45497">
        <ele>913.5</ele>
      </trkpt>
      <trkpt lat="45.04202" lon="4.45495">
        <ele>913.2</ele>
      </trkpt>
      <trkpt lat="45.04193" lon="4.45487">
        <ele>914.4</ele>
      </trkpt>
      <trkpt lat="45.04188" lon="4.45479">
        <ele>916</ele>
      </trkpt>
      <trkpt lat="45.04185" lon="4.45472">
        <ele>917.8</ele>
      </trkpt>
      <trkpt lat="45.04162" lon="4.45441">
        <ele>922.9</ele>
      </trkpt>
      <trkpt lat="45.04157" lon="4.45434">
        <ele>923.9</ele>
      </trkpt>
      <trkpt lat="45.04147" lon="4.45431">
        <ele>923.1</ele>
      </trkpt>
      <trkpt lat="45.04135" lon="4.4543">
        <ele>920.9</ele>
      </trkpt>
      <trkpt lat="45.04112" lon="4.45441">
        <ele>913.8</ele>
      </trkpt>
      <trkpt lat="45.04079" lon="4.45445">
        <ele>906.9</ele>
      </trkpt>
      <trkpt lat="45.04054" lon="4.45433">
        <ele>907.1</ele>
      </trkpt>
      <trkpt lat="45.04045" lon="4.45415">
        <ele>910.4</ele>
      </trkpt>
      <trkpt lat="45.04015" lon="4.45322">
        <ele>918.8</ele>
      </trkpt>
      <trkpt lat="45.04009" lon="4.45317">
        <ele>917.9</ele>
        <extensions>
          <visugpx:TrkExtension xmlns:visugpx="https://www.visugpx.com/editgpx/">
            <visugpx:node>17</visugpx:node>
            </visugpx:TrkExtension>
        </extensions>
      </trkpt>
      <trkpt lat="45.04006" lon="4.45314">
        <ele>917.4</ele>
      </trkpt>
      <trkpt lat="45.04001" lon="4.45316">
        <ele>915.7</ele>
      </trkpt>
      <trkpt lat="45.03998" lon="4.4533">
        <ele>914.1</ele>
      </trkpt>
      <trkpt lat="45.03997" lon="4.45354">
        <ele>911.9</ele>
      </trkpt>
      <trkpt lat="45.03991" lon="4.4537">
        <ele>912.1</ele>
      </trkpt>
      <trkpt lat="45.0398" lon="4.45397">
        <ele>913.2</ele>
      </trkpt>
      <trkpt lat="45.03955" lon="4.45436">
        <ele>915.5</ele>
      </trkpt>
      <trkpt lat="45.03931" lon="4.45481">
        <ele>913.6</ele>
      </trkpt>
      <trkpt lat="45.03924" lon="4.45503">
        <ele>911</ele>
      </trkpt>
      <trkpt lat="45.03913" lon="4.45567">
        <ele>904</ele>
      </trkpt>
      <trkpt lat="45.03907" lon="4.45591">
        <ele>903.3</ele>
      </trkpt>
      <trkpt lat="45.03898" lon="4.4561">
        <ele>906.4</ele>
      </trkpt>
      <trkpt lat="45.03891" lon="4.45624">
        <ele>908.9</ele>
      </trkpt>
      <trkpt lat="45.0388" lon="4.4564">
        <ele>912.9</ele>
      </trkpt>
      <trkpt lat="45.03874" lon="4.45646">
        <ele>915.3</ele>
      </trkpt>
      <trkpt lat="45.03873" lon="4.4565">
        <ele>915</ele>
      </trkpt>
      <trkpt lat="45.03878" lon="4.45651">
        <ele>912.9</ele>
      </trkpt>
      <trkpt lat="45.03898" lon="4.4566">
        <ele>903.5</ele>
      </trkpt>
      <trkpt lat="45.03913" lon="4.45683">
        <ele>899.9</ele>
      </trkpt>
      <trkpt lat="45.03928" lon="4.45722">
        <ele>901.4</ele>
      </trkpt>
      <trkpt lat="45.03938" lon="4.45739">
        <ele>900.3</ele>
      </trkpt>
      <trkpt lat="45.03947" lon="4.4576">
        <ele>899.9</ele>
      </trkpt>
      <trkpt lat="45.03954" lon="4.45774">
        <ele>899.3</ele>
      </trkpt>
      <trkpt lat="45.03961" lon="4.45793">
        <ele>898.5</ele>
      </trkpt>
      <trkpt lat="45.03966" lon="4.45805">
        <ele>898</ele>
      </trkpt>
      <trkpt lat="45.03971" lon="4.45819">
        <ele>898</ele>
      </trkpt>
      <trkpt lat="45.03974" lon="4.45835">
        <ele>899</ele>
      </trkpt>
      <trkpt lat="45.03974" lon="4.45851">
        <ele>899.1</ele>
      </trkpt>
      <trkpt lat="45.03974" lon="4.45865">
        <ele>899.7</ele>
      </trkpt>
      <trkpt lat="45.03972" lon="4.45879">
        <ele>900.5</ele>
      </trkpt>
      <trkpt lat="45.03968" lon="4.45896">
        <ele>902.9</ele>
      </trkpt>
      <trkpt lat="45.03955" lon="4.45917">
        <ele>908.1</ele>
      </trkpt>
      <trkpt lat="45.03943" lon="4.4593">
        <ele>911</ele>
      </trkpt>
      <trkpt lat="45.0393" lon="4.45939">
        <ele>914.2</ele>
      </trkpt>
      <trkpt lat="45.03912" lon="4.45957">
        <ele>917</ele>
      </trkpt>
      <trkpt lat="45.0389" lon="4.45973">
        <ele>918.8</ele>
      </trkpt>
      <trkpt lat="45.03871" lon="4.4599">
        <ele>919.3</ele>
      </trkpt>
      <trkpt lat="45.03861" lon="4.46001">
        <ele>918.8</ele>
      </trkpt>
      <trkpt lat="45.03849" lon="4.46009">
        <ele>918.9</ele>
      </trkpt>
      <trkpt lat="45.03841" lon="4.46012">
        <ele>919.7</ele>
      </trkpt>
      <trkpt lat="45.03831" lon="4.46016">
        <ele>921.1</ele>
      </trkpt>
      <trkpt lat="45.03822" lon="4.46023">
        <ele>922.5</ele>
      </trkpt>
      <trkpt lat="45.03806" lon="4.46045">
        <ele>922.3</ele>
      </trkpt>
      <trkpt lat="45.03792" lon="4.46071">
        <ele>921</ele>
      </trkpt>
      <trkpt lat="45.03783" lon="4.46085">
        <ele>921.2</ele>
      </trkpt>
      <trkpt lat="45.03776" lon="4.46098">
        <ele>921.7</ele>
      </trkpt>
      <trkpt lat="45.03769" lon="4.4611">
        <ele>922.2</ele>
      </trkpt>
      <trkpt lat="45.03753" lon="4.46133">
        <ele>924.6</ele>
      </trkpt>
      <trkpt lat="45.03749" lon="4.4614">
        <ele>925.3</ele>
      </trkpt>
      <trkpt lat="45.03737" lon="4.46156">
        <ele>927.3</ele>
      </trkpt>
      <trkpt lat="45.03726" lon="4.46175">
        <ele>928.4</ele>
      </trkpt>
      <trkpt lat="45.03718" lon="4.46193">
        <ele>928.1</ele>
      </trkpt>
      <trkpt lat="45.0371" lon="4.46208">
        <ele>928</ele>
      </trkpt>
      <trkpt lat="45.03701" lon="4.46226">
        <ele>927.8</ele>
      </trkpt>
      <trkpt lat="45.03694" lon="4.46236">
        <ele>928.1</ele>
      </trkpt>
      <trkpt lat="45.03687" lon="4.46244">
        <ele>929.1</ele>
      </trkpt>
      <trkpt lat="45.03675" lon="4.46254">
        <ele>931.3</ele>
      </trkpt>
      <trkpt lat="45.03662" lon="4.46264">
        <ele>933.2</ele>
      </trkpt>
      <trkpt lat="45.03647" lon="4.46278">
        <ele>934.8</ele>
      </trkpt>
      <trkpt lat="45.03638" lon="4.46287">
        <ele>936</ele>
      </trkpt>
      <trkpt lat="45.03634" lon="4.46293">
        <ele>935.9</ele>
      </trkpt>
      <trkpt lat="45.03631" lon="4.46302">
        <ele>935.4</ele>
      </trkpt>
      <trkpt lat="45.03623" lon="4.46315">
        <ele>935.1</ele>
      </trkpt>
      <trkpt lat="45.0361" lon="4.4634">
        <ele>935.2</ele>
      </trkpt>
      <trkpt lat="45.03597" lon="4.46368">
        <ele>936.7</ele>
      </trkpt>
      <trkpt lat="45.03581" lon="4.46405">
        <ele>937.2</ele>
      </trkpt>
      <trkpt lat="45.03568" lon="4.4643">
        <ele>932.6</ele>
      </trkpt>
      <trkpt lat="45.03562" lon="4.46437">
        <ele>930.8</ele>
      </trkpt>
      <trkpt lat="45.03561" lon="4.46438">
        <ele>930.5</ele>
        <extensions>
          <visugpx:TrkExtension xmlns:visugpx="https://www.visugpx.com/editgpx/">
            <visugpx:node>18</visugpx:node>
            </visugpx:TrkExtension>
        </extensions>
      </trkpt>
      <trkpt lat="45.03561" lon="4.46438">
        <ele>930.6</ele>
      </trkpt>
      <trkpt lat="45.03558" lon="4.46439">
        <ele>930.1</ele>
      </trkpt>
      <trkpt lat="45.03553" lon="4.46437">
        <ele>930</ele>
      </trkpt>
      <trkpt lat="45.03548" lon="4.46433">
        <ele>930.6</ele>
      </trkpt>
      <trkpt lat="45.03538" lon="4.46429">
        <ele>930.5</ele>
      </trkpt>
      <trkpt lat="45.03518" lon="4.46406">
        <ele>934</ele>
      </trkpt>
      <trkpt lat="45.03482" lon="4.46347">
        <ele>940.1</ele>
      </trkpt>
      <trkpt lat="45.03438" lon="4.4629">
        <ele>943.3</ele>
      </trkpt>
      <trkpt lat="45.03417" lon="4.46269">
        <ele>944.5</ele>
      </trkpt>
      <trkpt lat="45.03353" lon="4.46233">
        <ele>938.6</ele>
      </trkpt>
      <trkpt lat="45.03341" lon="4.46219">
        <ele>939.2</ele>
      </trkpt>
      <trkpt lat="45.03332" lon="4.4621">
        <ele>939</ele>
      </trkpt>
      <trkpt lat="45.03316" lon="4.46197">
        <ele>939.8</ele>
      </trkpt>
      <trkpt lat="45.0329" lon="4.46197">
        <ele>936.3</ele>
      </trkpt>
      <trkpt lat="45.03282" lon="4.46208">
        <ele>934</ele>
      </trkpt>
      <trkpt lat="45.0327" lon="4.46221">
        <ele>931.6</ele>
      </trkpt>
      <trkpt lat="45.03259" lon="4.46237">
        <ele>929.8</ele>
      </trkpt>
      <trkpt lat="45.0325" lon="4.46246">
        <ele>929</ele>
      </trkpt>
      <trkpt lat="45.03238" lon="4.46255">
        <ele>925.4</ele>
      </trkpt>
      <trkpt lat="45.03224" lon="4.46264">
        <ele>921.2</ele>
      </trkpt>
      <trkpt lat="45.03211" lon="4.46285">
        <ele>916.5</ele>
      </trkpt>
      <trkpt lat="45.03181" lon="4.46348">
        <ele>911.1</ele>
      </trkpt>
      <trkpt lat="45.03154" lon="4.46537">
        <ele>882.5</ele>
        <extensions>
          <visugpx:TrkExtension xmlns:visugpx="https://www.visugpx.com/editgpx/">
            <visugpx:node>21</visugpx:node>
            </visugpx:TrkExtension>
        </extensions>
      </trkpt>
      <trkpt lat="45.03152" lon="4.46536">
        <ele>882.7</ele>
      </trkpt>
      <trkpt lat="45.0315" lon="4.4654">
        <ele>881.7</ele>
      </trkpt>
      <trkpt lat="45.03146" lon="4.46546">
        <ele>880.1</ele>
      </trkpt>
      <trkpt lat="45.03132" lon="4.46555">
        <ele>877.6</ele>
      </trkpt>
      <trkpt lat="45.03117" lon="4.46563">
        <ele>875.3</ele>
      </trkpt>
      <trkpt lat="45.03109" lon="4.46565">
        <ele>874.6</ele>
      </trkpt>
      <trkpt lat="45.03102" lon="4.46565">
        <ele>874.4</ele>
      </trkpt>
      <trkpt lat="45.03096" lon="4.46561">
        <ele>874.9</ele>
      </trkpt>
      <trkpt lat="45.03088" lon="4.46556">
        <ele>875.8</ele>
      </trkpt>
      <trkpt lat="45.03073" lon="4.46535">
        <ele>876.6</ele>
      </trkpt>
      <trkpt lat="45.03071" lon="4.46533">
        <ele>876.4</ele>
      </trkpt>
      <trkpt lat="45.03078" lon="4.46558">
        <ele>873.8</ele>
      </trkpt>
      <trkpt lat="45.03084" lon="4.46567">
        <ele>873.3</ele>
      </trkpt>
      <trkpt lat="45.03089" lon="4.46574">
        <ele>872.2</ele>
      </trkpt>
      <trkpt lat="45.03093" lon="4.46577">
        <ele>871.6</ele>
      </trkpt>
      <trkpt lat="45.03103" lon="4.46581">
        <ele>871</ele>
      </trkpt>
      <trkpt lat="45.03146" lon="4.46583">
        <ele>871.7</ele>
      </trkpt>
      <trkpt lat="45.03163" lon="4.46586">
        <ele>871.5</ele>
      </trkpt>
      <trkpt lat="45.0317" lon="4.4659">
        <ele>869.8</ele>
      </trkpt>
      <trkpt lat="45.03175" lon="4.46598">
        <ele>867.3</ele>
      </trkpt>
      <trkpt lat="45.03176" lon="4.466">
        <ele>866.6</ele>
      </trkpt>
      <trkpt lat="45.03173" lon="4.46607">
        <ele>866</ele>
      </trkpt>
      <trkpt lat="45.03143" lon="4.46658">
        <ele>858.9</ele>
      </trkpt>
      <trkpt lat="45.03135" lon="4.46677">
        <ele>856</ele>
      </trkpt>
      <trkpt lat="45.0313" lon="4.4671">
        <ele>850.3</ele>
        <extensions>
          <visugpx:TrkExtension xmlns:visugpx="https://www.visugpx.com/editgpx/">
            <visugpx:node>22</visugpx:node>
            </visugpx:TrkExtension>
        </extensions>
      </trkpt>
      <trkpt lat="45.03127" lon="4.46728">
        <ele>847.2</ele>
      </trkpt>
      <trkpt lat="45.03121" lon="4.46749">
        <ele>844.3</ele>
      </trkpt>
      <trkpt lat="45.03106" lon="4.46789">
        <ele>837.1</ele>
      </trkpt>
      <trkpt lat="45.03099" lon="4.46831">
        <ele>828.1</ele>
      </trkpt>
      <trkpt lat="45.031" lon="4.46849">
        <ele>824.4</ele>
      </trkpt>
      <trkpt lat="45.03102" lon="4.46883">
        <ele>817.9</ele>
      </trkpt>
      <trkpt lat="45.03101" lon="4.46906">
        <ele>813.9</ele>
      </trkpt>
      <trkpt lat="45.03092" lon="4.46929">
        <ele>812.2</ele>
      </trkpt>
      <trkpt lat="45.03088" lon="4.46938">
        <ele>812.1</ele>
      </trkpt>
      <trkpt lat="45.03081" lon="4.46941">
        <ele>812.1</ele>
      </trkpt>
      <trkpt lat="45.03075" lon="4.46943">
        <ele>810.3</ele>
      </trkpt>
      <trkpt lat="45.03067" lon="4.4695">
        <ele>807.3</ele>
      </trkpt>
      <trkpt lat="45.03059" lon="4.46972">
        <ele>802.8</ele>
      </trkpt>
      <trkpt lat="45.03051" lon="4.47008">
        <ele>796.1</ele>
      </trkpt>
      <trkpt lat="45.0305" lon="4.4703">
        <ele>793</ele>
      </trkpt>
      <trkpt lat="45.03044" lon="4.47065">
        <ele>787.2</ele>
      </trkpt>
      <trkpt lat="45.03041" lon="4.47084">
        <ele>784.3</ele>
      </trkpt>
      <trkpt lat="45.03035" lon="4.47107">
        <ele>780.1</ele>
      </trkpt>
      <trkpt lat="45.03034" lon="4.47127">
        <ele>778</ele>
      </trkpt>
      <trkpt lat="45.03036" lon="4.4715">
        <ele>776.1</ele>
      </trkpt>
      <trkpt lat="45.03044" lon="4.47182">
        <ele>774.5</ele>
      </trkpt>
      <trkpt lat="45.03059" lon="4.47231">
        <ele>771.3</ele>
      </trkpt>
      <trkpt lat="45.03067" lon="4.47268">
        <ele>768.3</ele>
      </trkpt>
      <trkpt lat="45.03067" lon="4.47291">
        <ele>765.5</ele>
      </trkpt>
      <trkpt lat="45.03064" lon="4.47329">
        <ele>760.3</ele>
      </trkpt>
      <trkpt lat="45.03061" lon="4.47348">
        <ele>757.9</ele>
      </trkpt>
      <trkpt lat="45.03061" lon="4.47366">
        <ele>756.2</ele>
      </trkpt>
      <trkpt lat="45.03062" lon="4.47377">
        <ele>755.3</ele>
      </trkpt>
      <trkpt lat="45.03065" lon="4.47384">
        <ele>755.2</ele>
      </trkpt>
      <trkpt lat="45.03069" lon="4.47388">
        <ele>755.4</ele>
      </trkpt>
      <trkpt lat="45.03074" lon="4.47393">
        <ele>755.7</ele>
      </trkpt>
      <trkpt lat="45.03082" lon="4.47427">
        <ele>753.4</ele>
      </trkpt>
      <trkpt lat="45.03091" lon="4.47475">
        <ele>744.7</ele>
      </trkpt>
      <trkpt lat="45.03096" lon="4.47506">
        <ele>739.4</ele>
      </trkpt>
      <trkpt lat="45.03093" lon="4.47533">
        <ele>737.3</ele>
      </trkpt>
      <trkpt lat="45.03089" lon="4.4757">
        <ele>734.4</ele>
      </trkpt>
      <trkpt lat="45.03088" lon="4.47604">
        <ele>731.7</ele>
        <extensions>
          <visugpx:TrkExtension xmlns:visugpx="https://www.visugpx.com/editgpx/">
            <visugpx:node>23</visugpx:node>
            </visugpx:TrkExtension>
        </extensions>
      </trkpt>
      <trkpt lat="45.03088" lon="4.47614">
        <ele>731.1</ele>
      </trkpt>
      <trkpt lat="45.03087" lon="4.47645">
        <ele>729</ele>
      </trkpt>
      <trkpt lat="45.03082" lon="4.47679">
        <ele>726.9</ele>
      </trkpt>
      <trkpt lat="45.03077" lon="4.47706">
        <ele>724.3</ele>
      </trkpt>
      <trkpt lat="45.0308" lon="4.47728">
        <ele>723.9</ele>
      </trkpt>
      <trkpt lat="45.03086" lon="4.4775">
        <ele>723.7</ele>
      </trkpt>
      <trkpt lat="45.03088" lon="4.47762">
        <ele>723</ele>
      </trkpt>
      <trkpt lat="45.03085" lon="4.47804">
        <ele>721.2</ele>
      </trkpt>
      <trkpt lat="45.03086" lon="4.47824">
        <ele>720.2</ele>
      </trkpt>
      <trkpt lat="45.03087" lon="4.47832">
        <ele>719.8</ele>
      </trkpt>
      <trkpt lat="45.03086" lon="4.47838">
        <ele>719.3</ele>
      </trkpt>
      <trkpt lat="45.03082" lon="4.47849">
        <ele>717.7</ele>
      </trkpt>
      <trkpt lat="45.03075" lon="4.47878">
        <ele>712.2</ele>
      </trkpt>
      <trkpt lat="45.03072" lon="4.47914">
        <ele>707.6</ele>
      </trkpt>
      <trkpt lat="45.03069" lon="4.4795">
        <ele>702.2</ele>
      </trkpt>
      <trkpt lat="45.03066" lon="4.47982">
        <ele>697.4</ele>
      </trkpt>
      <trkpt lat="45.03063" lon="4.48004">
        <ele>693.7</ele>
      </trkpt>
      <trkpt lat="45.03064" lon="4.48025">
        <ele>691.2</ele>
      </trkpt>
      <trkpt lat="45.03055" lon="4.4806">
        <ele>683.8</ele>
      </trkpt>
      <trkpt lat="45.03045" lon="4.481">
        <ele>675.9</ele>
      </trkpt>
      <trkpt lat="45.03039" lon="4.48128">
        <ele>671.3</ele>
      </trkpt>
      <trkpt lat="45.03028" lon="4.48163">
        <ele>665.7</ele>
      </trkpt>
      <trkpt lat="45.03024" lon="4.48175">
        <ele>663.5</ele>
      </trkpt>
      <trkpt lat="45.0301" lon="4.48203">
        <ele>658.3</ele>
      </trkpt>
      <trkpt lat="45.02999" lon="4.48225">
        <ele>654.9</ele>
      </trkpt>
      <trkpt lat="45.02994" lon="4.48253">
        <ele>651.7</ele>
      </trkpt>
      <trkpt lat="45.02984" lon="4.48255">
        <ele>649.9</ele>
      </trkpt>
      <trkpt lat="45.02968" lon="4.48251">
        <ele>647.6</ele>
      </trkpt>
      <trkpt lat="45.02965" lon="4.48256">
        <ele>646.8</ele>
      </trkpt>
      <trkpt lat="45.02943" lon="4.48285">
        <ele>643.1</ele>
      </trkpt>
      <trkpt lat="45.02919" lon="4.48313">
        <ele>642.1</ele>
        <extensions>
          <visugpx:TrkExtension xmlns:visugpx="https://www.visugpx.com/editgpx/">
            <visugpx:node>24</visugpx:node>
            </visugpx:TrkExtension>
        </extensions>
      </trkpt>
      <trkpt lat="45.02911" lon="4.48322">
        <ele>641.8</ele>
      </trkpt>
      <trkpt lat="45.02904" lon="4.48328">
        <ele>641.1</ele>
      </trkpt>
      <trkpt lat="45.02903" lon="4.48337">
        <ele>641.3</ele>
      </trkpt>
      <trkpt lat="45.02903" lon="4.48346">
        <ele>641.2</ele>
      </trkpt>
      <trkpt lat="45.02905" lon="4.48364">
        <ele>641.1</ele>
      </trkpt>
      <trkpt lat="45.02911" lon="4.4839">
        <ele>641.2</ele>
      </trkpt>
      <trkpt lat="45.02915" lon="4.48409">
        <ele>641.1</ele>
      </trkpt>
      <trkpt lat="45.02917" lon="4.48418">
        <ele>640.9</ele>
      </trkpt>
      <trkpt lat="45.02922" lon="4.48449">
        <ele>638.9</ele>
      </trkpt>
      <trkpt lat="45.02915" lon="4.48469">
        <ele>639.1</ele>
      </trkpt>
      <trkpt lat="45.02906" lon="4.48486">
        <ele>638.3</ele>
      </trkpt>
      <trkpt lat="45.02899" lon="4.48492">
        <ele>638</ele>
      </trkpt>
      <trkpt lat="45.02889" lon="4.48492">
        <ele>637.8</ele>
      </trkpt>
      <trkpt lat="45.02875" lon="4.48493">
        <ele>637.6</ele>
      </trkpt>
      <trkpt lat="45.02868" lon="4.48495">
        <ele>637.5</ele>
      </trkpt>
      <trkpt lat="45.02864" lon="4.48498">
        <ele>637.4</ele>
      </trkpt>
      <trkpt lat="45.02857" lon="4.48506">
        <ele>637.6</ele>
      </trkpt>
      <trkpt lat="45.02852" lon="4.48513">
        <ele>637.8</ele>
      </trkpt>
      <trkpt lat="45.02844" lon="4.48521">
        <ele>638.3</ele>
      </trkpt>
      <trkpt lat="45.02829" lon="4.48552">
        <ele>638.7</ele>
      </trkpt>
      <trkpt lat="45.02814" lon="4.48591">
        <ele>637.9</ele>
      </trkpt>
      <trkpt lat="45.02808" lon="4.48609">
        <ele>638.3</ele>
      </trkpt>
      <trkpt lat="45.02804" lon="4.4862">
        <ele>638.7</ele>
      </trkpt>
      <trkpt lat="45.02799" lon="4.4863">
        <ele>638.7</ele>
      </trkpt>
      <trkpt lat="45.02795" lon="4.48635">
        <ele>638.2</ele>
      </trkpt>
      <trkpt lat="45.02786" lon="4.48639">
        <ele>636.6</ele>
      </trkpt>
      <trkpt lat="45.02778" lon="4.48641">
        <ele>634.9</ele>
      </trkpt>
      <trkpt lat="45.02769" lon="4.48643">
        <ele>633</ele>
      </trkpt>
      <trkpt lat="45.02762" lon="4.48644">
        <ele>631.4</ele>
      </trkpt>
      <trkpt lat="45.02757" lon="4.48645">
        <ele>630.6</ele>
      </trkpt>
      <trkpt lat="45.02751" lon="4.48648">
        <ele>629.7</ele>
      </trkpt>
      <trkpt lat="45.02746" lon="4.48655">
        <ele>628.7</ele>
      </trkpt>
      <trkpt lat="45.02734" lon="4.48678">
        <ele>626.9</ele>
      </trkpt>
      <trkpt lat="45.0272" lon="4.48696">
        <ele>624</ele>
      </trkpt>
      <trkpt lat="45.02709" lon="4.48715">
        <ele>622.3</ele>
      </trkpt>
      <trkpt lat="45.02695" lon="4.48738">
        <ele>620.2</ele>
      </trkpt>
      <trkpt lat="45.02691" lon="4.48747">
        <ele>620.1</ele>
      </trkpt>
      <trkpt lat="45.0269" lon="4.48753">
        <ele>620.2</ele>
      </trkpt>
      <trkpt lat="45.02689" lon="4.48758">
        <ele>620.3</ele>
      </trkpt>
      <trkpt lat="45.02692" lon="4.48771">
        <ele>621.9</ele>
      </trkpt>
      <trkpt lat="45.02693" lon="4.48777">
        <ele>622.5</ele>
      </trkpt>
      <trkpt lat="45.02694" lon="4.48781">
        <ele>623.2</ele>
      </trkpt>
      <trkpt lat="45.02694" lon="4.48786">
        <ele>623.7</ele>
      </trkpt>
      <trkpt lat="45.02697" lon="4.48795">
        <ele>625</ele>
      </trkpt>
      <trkpt lat="45.02696" lon="4.48799">
        <ele>625</ele>
      </trkpt>
      <trkpt lat="45.02695" lon="4.48802">
        <ele>624.6</ele>
      </trkpt>
      <trkpt lat="45.02683" lon="4.48808">
        <ele>620.9</ele>
      </trkpt>
      <trkpt lat="45.02676" lon="4.48814">
        <ele>618.3</ele>
      </trkpt>
      <trkpt lat="45.02669" lon="4.48821">
        <ele>616.4</ele>
      </trkpt>
      <trkpt lat="45.02664" lon="4.48829">
        <ele>614.8</ele>
      </trkpt>
      <trkpt lat="45.02662" lon="4.4883">
        <ele>613.8</ele>
      </trkpt>
      <trkpt lat="45.0266" lon="4.48833">
        <ele>613.4</ele>
      </trkpt>
      <trkpt lat="45.0266" lon="4.48835">
        <ele>613.6</ele>
      </trkpt>
      <trkpt lat="45.02659" lon="4.48835">
        <ele>613.3</ele>
      </trkpt>
      <trkpt lat="45.02661" lon="4.48827">
        <ele>613.3</ele>
      </trkpt>
      <trkpt lat="45.02662" lon="4.48823">
        <ele>613.7</ele>
      </trkpt>
      <trkpt lat="45.02663" lon="4.48818">
        <ele>613.8</ele>
      </trkpt>
      <trkpt lat="45.02666" lon="4.48809">
        <ele>614.6</ele>
      </trkpt>
      <trkpt lat="45.02665" lon="4.48804">
        <ele>613.9</ele>
      </trkpt>
      <trkpt lat="45.02662" lon="4.48801">
        <ele>612.6</ele>
      </trkpt>
      <trkpt lat="45.02646" lon="4.48794">
        <ele>606.1</ele>
      </trkpt>
      <trkpt lat="45.02634" lon="4.48786">
        <ele>600.7</ele>
      </trkpt>
      <trkpt lat="45.02631" lon="4.48784">
        <ele>599.3</ele>
      </trkpt>
      <trkpt lat="45.02628" lon="4.48779">
        <ele>598</ele>
      </trkpt>
      <trkpt lat="45.02626" lon="4.48774">
        <ele>596.9</ele>
      </trkpt>
      <trkpt lat="45.02625" lon="4.48769">
        <ele>596.3</ele>
      </trkpt>
      <trkpt lat="45.02624" lon="4.48762">
        <ele>595.8</ele>
      </trkpt>
      <trkpt lat="45.02626" lon="4.4875">
        <ele>595.7</ele>
      </trkpt>
      <trkpt lat="45.02628" lon="4.48738">
        <ele>595.6</ele>
      </trkpt>
      <trkpt lat="45.02631" lon="4.48734">
        <ele>595.8</ele>
      </trkpt>
      <trkpt lat="45.02631" lon="4.48728">
        <ele>595.4</ele>
      </trkpt>
      <trkpt lat="45.02631" lon="4.48725">
        <ele>594.9</ele>
      </trkpt>
      <trkpt lat="45.0263" lon="4.48724">
        <ele>594.6</ele>
      </trkpt>
      <trkpt lat="45.02626" lon="4.48728">
        <ele>593.4</ele>
      </trkpt>
      <trkpt lat="45.02611" lon="4.48745">
        <ele>589.5</ele>
      </trkpt>
      <trkpt lat="45.02609" lon="4.4875">
        <ele>589</ele>
      </trkpt>
      <trkpt lat="45.02605" lon="4.48764">
        <ele>588.3</ele>
      </trkpt>
      <trkpt lat="45.02605" lon="4.48769">
        <ele>588.3</ele>
      </trkpt>
      <trkpt lat="45.02603" lon="4.48774">
        <ele>588</ele>
      </trkpt>
      <trkpt lat="45.02599" lon="4.48772">
        <ele>586.3</ele>
        <extensions>
          <visugpx:TrkExtension xmlns:visugpx="https://www.visugpx.com/editgpx/">
            <visugpx:node>25</visugpx:node>
            </visugpx:TrkExtension>
        </extensions>
      </trkpt>
      <trkpt lat="45.026" lon="4.48761">
        <ele>586</ele>
      </trkpt>
      <trkpt lat="45.02602" lon="4.48732">
        <ele>584.9</ele>
      </trkpt>
      <trkpt lat="45.02615" lon="4.48683">
        <ele>584.7</ele>
      </trkpt>
      <trkpt lat="45.02627" lon="4.48632">
        <ele>583.7</ele>
      </trkpt>
      <trkpt lat="45.02633" lon="4.48591">
        <ele>581.2</ele>
      </trkpt>
      <trkpt lat="45.02634" lon="4.48531">
        <ele>579.6</ele>
      </trkpt>
      <trkpt lat="45.02634" lon="4.48499">
        <ele>579.1</ele>
      </trkpt>
      <trkpt lat="45.02631" lon="4.48491">
        <ele>580.5</ele>
      </trkpt>
      <trkpt lat="45.02625" lon="4.48486">
        <ele>581.5</ele>
      </trkpt>
      <trkpt lat="45.02622" lon="4.48485">
        <ele>581.8</ele>
      </trkpt>
      <trkpt lat="45.02612" lon="4.48487">
        <ele>581.8</ele>
      </trkpt>
      <trkpt lat="45.02594" lon="4.48497">
        <ele>579.8</ele>
      </trkpt>
      <trkpt lat="45.0258" lon="4.4851">
        <ele>579.2</ele>
      </trkpt>
      <trkpt lat="45.02573" lon="4.48519">
        <ele>580.5</ele>
      </trkpt>
      <trkpt lat="45.02564" lon="4.48536">
        <ele>580.9</ele>
      </trkpt>
      <trkpt lat="45.02561" lon="4.48548">
        <ele>580</ele>
      </trkpt>
      <trkpt lat="45.0255" lon="4.48574">
        <ele>578.4</ele>
      </trkpt>
      <trkpt lat="45.02534" lon="4.48602">
        <ele>578</ele>
      </trkpt>
      <trkpt lat="45.02505" lon="4.48638">
        <ele>574.6</ele>
      </trkpt>
      <trkpt lat="45.02485" lon="4.48662">
        <ele>571.6</ele>
      </trkpt>
      <trkpt lat="45.02478" lon="4.4867">
        <ele>571.2</ele>
      </trkpt>
      <trkpt lat="45.02473" lon="4.48685">
        <ele>569.8</ele>
      </trkpt>
      <trkpt lat="45.02462" lon="4.48724">
        <ele>565.4</ele>
      </trkpt>
      <trkpt lat="45.02451" lon="4.48758">
        <ele>562.3</ele>
      </trkpt>
      <trkpt lat="45.02433" lon="4.48796">
        <ele>560.2</ele>
      </trkpt>
      <trkpt lat="45.02417" lon="4.48824">
        <ele>557.3</ele>
      </trkpt>
      <trkpt lat="45.02403" lon="4.4886">
        <ele>553.1</ele>
      </trkpt>
      <trkpt lat="45.024" lon="4.48868">
        <ele>552.2</ele>
      </trkpt>
      <trkpt lat="45.024" lon="4.48871">
        <ele>552</ele>
        <extensions>
          <visugpx:TrkExtension xmlns:visugpx="https://www.visugpx.com/editgpx/">
            <visugpx:node>26</visugpx:node>
            </visugpx:TrkExtension>
        </extensions>
      </trkpt>
      <trkpt lat="45.02395" lon="4.4891">
        <ele>548.4</ele>
      </trkpt>
      <trkpt lat="45.02392" lon="4.48932">
        <ele>547.6</ele>
      </trkpt>
      <trkpt lat="45.02392" lon="4.48938">
        <ele>547.5</ele>
      </trkpt>
      <trkpt lat="45.02392" lon="4.48948">
        <ele>547.3</ele>
      </trkpt>
      <trkpt lat="45.02395" lon="4.48976">
        <ele>546.6</ele>
      </trkpt>
      <trkpt lat="45.02394" lon="4.48993">
        <ele>546.4</ele>
      </trkpt>
      <trkpt lat="45.02391" lon="4.49015">
        <ele>546.4</ele>
      </trkpt>
      <trkpt lat="45.0239" lon="4.49036">
        <ele>546.3</ele>
      </trkpt>
      <trkpt lat="45.02393" lon="4.49071">
        <ele>545.7</ele>
      </trkpt>
      <trkpt lat="45.02404" lon="4.4913">
        <ele>540.5</ele>
      </trkpt>
      <trkpt lat="45.02409" lon="4.49152">
        <ele>538.2</ele>
      </trkpt>
      <trkpt lat="45.02414" lon="4.49183">
        <ele>535.1</ele>
      </trkpt>
      <trkpt lat="45.0242" lon="4.49209">
        <ele>532.7</ele>
      </trkpt>
      <trkpt lat="45.02424" lon="4.49229">
        <ele>530.8</ele>
      </trkpt>
      <trkpt lat="45.02431" lon="4.49243">
        <ele>528.9</ele>
      </trkpt>
      <trkpt lat="45.02437" lon="4.49258">
        <ele>526.7</ele>
      </trkpt>
      <trkpt lat="45.02449" lon="4.49284">
        <ele>522.7</ele>
      </trkpt>
      <trkpt lat="45.02454" lon="4.49293">
        <ele>521.6</ele>
      </trkpt>
      <trkpt lat="45.02458" lon="4.49304">
        <ele>520.6</ele>
      </trkpt>
      <trkpt lat="45.02462" lon="4.49312">
        <ele>520.1</ele>
      </trkpt>
      <trkpt lat="45.02475" lon="4.49328">
        <ele>519.9</ele>
      </trkpt>
      <trkpt lat="45.02469" lon="4.49326">
        <ele>519.5</ele>
      </trkpt>
      <trkpt lat="45.02469" lon="4.49326">
        <ele>519.5</ele>
      </trkpt>
      <trkpt lat="45.02475" lon="4.49328">
        <ele>519.9</ele>
      </trkpt>
      <trkpt lat="45.02487" lon="4.49344">
        <ele>521</ele>
      </trkpt>
      <trkpt lat="45.02493" lon="4.49359">
        <ele>522.2</ele>
      </trkpt>
      <trkpt lat="45.02505" lon="4.49395">
        <ele>524</ele>
      </trkpt>
      <trkpt lat="45.02507" lon="4.49405">
        <ele>524.3</ele>
      </trkpt>
      <trkpt lat="45.02506" lon="4.49415">
        <ele>524.8</ele>
      </trkpt>
      <trkpt lat="45.02502" lon="4.4943">
        <ele>526.3</ele>
      </trkpt>
      <trkpt lat="45.02499" lon="4.49455">
        <ele>527.5</ele>
      </trkpt>
      <trkpt lat="45.02498" lon="4.49479">
        <ele>528.4</ele>
      </trkpt>
      <trkpt lat="45.025" lon="4.49487">
        <ele>529.3</ele>
      </trkpt>
      <trkpt lat="45.02501" lon="4.49493">
        <ele>529.4</ele>
      </trkpt>
      <trkpt lat="45.02504" lon="4.495">
        <ele>528.9</ele>
      </trkpt>
      <trkpt lat="45.02502" lon="4.4951">
        <ele>528.3</ele>
      </trkpt>
      <trkpt lat="45.02501" lon="4.49524">
        <ele>526.6</ele>
      </trkpt>
      <trkpt lat="45.02499" lon="4.49544">
        <ele>524</ele>
      </trkpt>
      <trkpt lat="45.02505" lon="4.49543">
        <ele>523.4</ele>
      </trkpt>
      <trkpt lat="45.02506" lon="4.49548">
        <ele>522.4</ele>
      </trkpt>
      <trkpt lat="45.02506" lon="4.49548">
        <ele>522.4</ele>
      </trkpt>
      <trkpt lat="45.02511" lon="4.49542">
        <ele>522.3</ele>
      </trkpt>
      <trkpt lat="45.0252" lon="4.49537">
        <ele>520.9</ele>
      </trkpt>
      <trkpt lat="45.02526" lon="4.49537">
        <ele>519.6</ele>
      </trkpt>
      <trkpt lat="45.02531" lon="4.49532">
        <ele>519</ele>
      </trkpt>
      <trkpt lat="45.02541" lon="4.49521">
        <ele>518</ele>
      </trkpt>
      <trkpt lat="45.02545" lon="4.49514">
        <ele>517.9</ele>
      </trkpt>
      <trkpt lat="45.02547" lon="4.49506">
        <ele>518.2</ele>
      </trkpt>
      <trkpt lat="45.02549" lon="4.49489">
        <ele>518</ele>
      </trkpt>
      <trkpt lat="45.02553" lon="4.4948">
        <ele>517</ele>
      </trkpt>
      <trkpt lat="45.02554" lon="4.49473">
        <ele>516.6</ele>
      </trkpt>
      <trkpt lat="45.02554" lon="4.49459">
        <ele>516.3</ele>
      </trkpt>
      <trkpt lat="45.02554" lon="4.49415">
        <ele>515.7</ele>
      </trkpt>
      <trkpt lat="45.02554" lon="4.49396">
        <ele>515.6</ele>
      </trkpt>
      <trkpt lat="45.02554" lon="4.49367">
        <ele>515.5</ele>
      </trkpt>
      <trkpt lat="45.0255" lon="4.49344">
        <ele>516.1</ele>
        <extensions>
          <visugpx:TrkExtension xmlns:visugpx="https://www.visugpx.com/editgpx/">
            <visugpx:node>29</visugpx:node>
            </visugpx:TrkExtension>
        </extensions>
      </trkpt>
      <trkpt lat="45.02549" lon="4.49337">
        <ele>516.2</ele>
      </trkpt>
      <trkpt lat="45.02558" lon="4.49346">
        <ele>515</ele>
      </trkpt>
      <trkpt lat="45.02576" lon="4.49366">
        <ele>512.3</ele>
      </trkpt>
      <trkpt lat="45.02588" lon="4.4939">
        <ele>511.3</ele>
      </trkpt>
      <trkpt lat="45.02593" lon="4.49412">
        <ele>510.8</ele>
      </trkpt>
      <trkpt lat="45.02597" lon="4.49431">
        <ele>510.4</ele>
      </trkpt>
      <trkpt lat="45.02604" lon="4.49442">
        <ele>510</ele>
      </trkpt>
      <trkpt lat="45.02623" lon="4.49499">
        <ele>504.3</ele>
      </trkpt>
      <trkpt lat="45.02637" lon="4.49525">
        <ele>500.5</ele>
        <extensions>
          <visugpx:TrkExtension xmlns:visugpx="https://www.visugpx.com/editgpx/">
            <visugpx:node>30</visugpx:node>
            </visugpx:TrkExtension>
        </extensions>
      </trkpt>
      <trkpt lat="45.02642" lon="4.49536">
        <ele>498.9</ele>
      </trkpt>
      <trkpt lat="45.02648" lon="4.49531">
        <ele>498.5</ele>
      </trkpt>
      <trkpt lat="45.02667" lon="4.49515">
        <ele>496.9</ele>
      </trkpt>
      <trkpt lat="45.02683" lon="4.49492">
        <ele>498.7</ele>
      </trkpt>
      <trkpt lat="45.0269" lon="4.49474">
        <ele>501.2</ele>
      </trkpt>
      <trkpt lat="45.02699" lon="4.49464">
        <ele>501.7</ele>
      </trkpt>
      <trkpt lat="45.02709" lon="4.49451">
        <ele>502.4</ele>
        <extensions>
          <visugpx:TrkExtension xmlns:visugpx="https://www.visugpx.com/editgpx/">
            <visugpx:node>31</visugpx:node>
            </visugpx:TrkExtension>
        </extensions>
      </trkpt>
    </trkseg>
  </trk>
</gpx>